| time (UTC) | temp F | wind direction | speed MPH | gust MPH | rain 1hr in | rain 24hr in | rain mn in | humidity % | barometer mb |
| 20260507092504 | 94 | 224 | 3.0 | 9.0 | 0.00 | 0.00 | 0.00 | 35 | 1007.5 |
| 20260507092405 | 94 | 171 | 2.0 | 9.0 | 0.00 | 0.00 | 0.00 | 35 | 1007.5 |
| 20260507092302 | 95 | 218 | 2.0 | 9.0 | 0.00 | 0.00 | 0.00 | 35 | 1007.5 |
| 20260507092203 | 95 | 238 | 3.0 | 9.0 | 0.00 | 0.00 | 0.00 | 35 | 1007.5 |
| 20260507092104 | 95 | 207 | 4.0 | 9.0 | 0.00 | 0.00 | 0.00 | 35 | 1007.4 |
| 20260507091905 | 95 | 221 | 3.0 | 9.0 | 0.00 | 0.00 | 0.00 | 35 | 1007.5 |
| 20260507091705 | 95 | 136 | 3.0 | 9.0 | 0.00 | 0.00 | 0.00 | 35 | 1007.5 |
| 20260507091602 | 94 | 55 | 1.0 | 8.0 | 0.00 | 0.00 | 0.00 | 35 | 1007.5 |
| 20260507091506 | 94 | 145 | 1.0 | 8.0 | 0.00 | 0.00 | 0.00 | 35 | 1007.5 |
| 20260507091406 | 94 | 144 | 3.0 | 8.0 | 0.00 | 0.00 | 0.00 | 35 | 1007.5 |
| 20260507091303 | 94 | 126 | 4.0 | 8.0 | 0.00 | 0.00 | 0.00 | 35 | 1007.5 |
| 20260507091203 | 94 | 138 | 3.0 | 8.0 | 0.00 | 0.00 | 0.00 | 35 | 1007.6 |
| 20260507091008 | 94 | 281 | 0.0 | 6.0 | 0.00 | 0.00 | 0.00 | 35 | 1007.6 |
| 20260507090905 | 94 | 240 | 0.0 | 6.0 | 0.00 | 0.00 | 0.00 | 35 | 1007.6 |
| 20260507090807 | 94 | 240 | 0.0 | 6.0 | 0.00 | 0.00 | 0.00 | 35 | 1007.6 |
| 20260507090704 | 94 | 240 | 1.0 | 6.0 | 0.00 | 0.00 | 0.00 | 35 | 1007.7 |
| 20260507090604 | 94 | 163 | 3.0 | 6.0 | 0.00 | 0.00 | 0.00 | 34 | 1007.7 |
| 20260507090507 | 94 | 142 | 2.0 | 6.0 | 0.00 | 0.00 | 0.00 | 35 | 1007.7 |
| 20260507090405 | 94 | 68 | 1.0 | 5.0 | 0.00 | 0.00 | 0.00 | 35 | 1007.7 |
| 20260507090304 | 93 | 165 | 1.0 | 4.0 | 0.00 | 0.00 | 0.00 | 36 | 1007.7 |
| 20260507090206 | 93 | 103 | 2.0 | 4.0 | 0.00 | 0.00 | 0.00 | 37 | 1007.7 |
| 20260507090103 | 93 | 150 | 2.0 | 4.0 | 0.00 | 0.00 | 0.00 | 37 | 1007.7 |
| 20260507085904 | 93 | 5 | 0.0 | 4.0 | 0.00 | 0.00 | 0.00 | 35 | 1007.7 |
| 20260507085803 | 93 | 360 | 1.0 | 4.0 | 0.00 | 0.00 | 0.00 | 35 | 1007.8 |
| 20260507085703 | 93 | 360 | 2.0 | 7.0 | 0.00 | 0.00 | 0.00 | 35 | 1007.8 |
| 20260507085608 | 93 | 57 | 2.0 | 7.0 | 0.00 | 0.00 | 0.00 | 35 | 1007.8 |
| 20260507085507 | 93 | 70 | 1.0 | 9.0 | 0.00 | 0.00 | 0.00 | 36 | 1007.8 |
| 20260507085305 | 92 | 69 | 2.0 | 11.0 | 0.00 | 0.00 | 0.00 | 35 | 1007.9 |
| 20260507085208 | 92 | 73 | 2.0 | 11.0 | 0.00 | 0.00 | 0.00 | 35 | 1007.9 |
| 20260507085105 | 92 | 69 | 2.0 | 11.0 | 0.00 | 0.00 | 0.00 | 35 | 1007.9 |
| 20260507085016 | 93 | 103 | 4.0 | 11.0 | 0.00 | 0.00 | 0.00 | 35 | 1008.0 |
| 20260507084803 | 93 | 124 | 5.0 | 11.0 | 0.00 | 0.00 | 0.00 | 35 | 1008.0 |
| 20260507084703 | 93 | 129 | 8.0 | 11.0 | 0.00 | 0.00 | 0.00 | 35 | 1008.0 |
| 20260507084603 | 93 | 130 | 9.0 | 11.0 | 0.00 | 0.00 | 0.00 | 35 | 1008.0 |
| 20260507084506 | 93 | 137 | 8.0 | 11.0 | 0.00 | 0.00 | 0.00 | 36 | 1008.0 |
| 20260507084359 | 93 | 142 | 5.0 | 10.0 | 0.00 | 0.00 | 0.00 | 36 | 1008.1 |
| 20260507084303 | 93 | 153 | 3.0 | 8.0 | 0.00 | 0.00 | 0.00 | 36 | 1008.1 |
| 20260507084105 | 93 | 169 | 3.0 | 8.0 | 0.00 | 0.00 | 0.00 | 36 | 1008.0 |
| 20260507084009 | 93 | 171 | 1.0 | 8.0 | 0.00 | 0.00 | 0.00 | 37 | 1008.0 |
| 20260507083803 | 93 | 220 | 2.0 | 8.0 | 0.00 | 0.00 | 0.00 | 36 | 1008.1 |
| 20260507083705 | 92 | 192 | 2.0 | 8.0 | 0.00 | 0.00 | 0.00 | 36 | 1008.1 |
| 20260507083602 | 92 | 220 | 4.0 | 8.0 | 0.00 | 0.00 | 0.00 | 37 | 1008.0 |
| 20260507083505 | 92 | 230 | 5.0 | 8.0 | 0.00 | 0.00 | 0.00 | 36 | 1008.1 |
| 20260507083402 | 92 | 180 | 6.0 | 9.0 | 0.00 | 0.00 | 0.00 | 37 | 1008.1 |
| 20260507083302 | 92 | 173 | 6.0 | 10.0 | 0.00 | 0.00 | 0.00 | 36 | 1008.1 |
| 20260507083202 | 92 | 175 | 6.0 | 9.0 | 0.00 | 0.00 | 0.00 | 36 | 1008.1 |
| 20260507083103 | 92 | 126 | 5.0 | 10.0 | 0.00 | 0.00 | 0.00 | 36 | 1008.0 |
| 20260507082903 | 92 | 159 | 3.0 | 10.0 | 0.00 | 0.00 | 0.00 | 35 | 1008.0 |
| 20260507082805 | 92 | 102 | 3.0 | 10.0 | 0.00 | 0.00 | 0.00 | 35 | 1008.1 |
| 20260507082702 | 92 | 112 | 2.0 | 11.0 | 0.00 | 0.00 | 0.00 | 35 | 1008.0 |
| 20260507082604 | 92 | 150 | 2.0 | 11.0 | 0.00 | 0.00 | 0.00 | 35 | 1008.1 |
| 20260507082504 | 92 | 112 | 5.0 | 11.0 | 0.00 | 0.00 | 0.00 | 35 | 1008.1 |
| 20260507082403 | 92 | 100 | 7.0 | 11.0 | 0.00 | 0.00 | 0.00 | 35 | 1008.1 |
| 20260507082204 | 92 | 109 | 3.0 | 11.0 | 0.00 | 0.00 | 0.00 | 35 | 1008.1 |
| 20260507082007 | 92 | 69 | 6.0 | 11.0 | 0.00 | 0.00 | 0.00 | 36 | 1008.3 |
| 20260507081906 | 92 | 132 | 6.0 | 11.0 | 0.00 | 0.00 | 0.00 | 35 | 1008.3 |
| 20260507081807 | 93 | 83 | 5.0 | 8.0 | 0.00 | 0.00 | 0.00 | 36 | 1008.2 |
| 20260507081605 | 93 | 187 | 4.0 | 10.0 | 0.00 | 0.00 | 0.00 | 36 | 1008.2 |
| 20260507081506 | 93 | 157 | 3.0 | 10.0 | 0.00 | 0.00 | 0.00 | 36 | 1008.3 |
| 20260507081403 | 93 | 191 | 3.0 | 10.0 | 0.00 | 0.00 | 0.00 | 36 | 1008.3 |
| 20260507081303 | 93 | 152 | 5.0 | 10.0 | 0.00 | 0.00 | 0.00 | 36 | 1008.4 |
| 20260507081202 | 92 | 162 | 6.0 | 10.0 | 0.00 | 0.00 | 0.00 | 36 | 1008.3 |
| 20260507080902 | 92 | 171 | 7.0 | 12.0 | 0.00 | 0.00 | 0.00 | 36 | 1008.4 |
| 20260507080805 | 92 | 146 | 6.0 | 12.0 | 0.00 | 0.00 | 0.00 | 36 | 1008.4 |
| 20260507080704 | 92 | 170 | 5.0 | 11.0 | 0.00 | 0.00 | 0.00 | 36 | 1008.4 |
| 20260507080604 | 92 | 154 | 6.0 | 11.0 | 0.00 | 0.00 | 0.00 | 36 | 1008.4 |
| 20260507080508 | 92 | 130 | 5.0 | 11.0 | 0.00 | 0.00 | 0.00 | 36 | 1008.4 |
| 20260507080305 | 92 | 176 | 4.0 | 11.0 | 0.00 | 0.00 | 0.00 | 36 | 1008.4 |
| 20260507080200 | 92 | 134 | 5.0 | 11.0 | 0.00 | 0.00 | 0.00 | 36 | 1008.4 |
| 20260507080103 | 92 | 196 | 6.0 | 11.0 | 0.00 | 0.00 | 0.00 | 36 | 1008.4 |
| 20260507075905 | 92 | 202 | 6.0 | 11.0 | 0.00 | 0.00 | 0.00 | 37 | 1008.4 |
| 20260507075802 | 92 | 178 | 6.0 | 11.0 | 0.00 | 0.00 | 0.00 | 36 | 1008.4 |
| 20260507075704 | 92 | 123 | 4.0 | 11.0 | 0.00 | 0.00 | 0.00 | 37 | 1008.4 |
| 20260507075605 | 92 | 158 | 5.0 | 11.0 | 0.00 | 0.00 | 0.00 | 36 | 1008.4 |
| 20260507075505 | 92 | 136 | 7.0 | 11.0 | 0.00 | 0.00 | 0.00 | 36 | 1008.5 |
| 20260507075402 | 92 | 130 | 7.0 | 11.0 | 0.00 | 0.00 | 0.00 | 36 | 1008.4 |
| 20260507075307 | 92 | 101 | 7.0 | 11.0 | 0.00 | 0.00 | 0.00 | 35 | 1008.5 |
| 20260507075205 | 92 | 80 | 6.0 | 11.0 | 0.00 | 0.00 | 0.00 | 35 | 1008.5 |
| 20260507075103 | 92 | 116 | 5.0 | 11.0 | 0.00 | 0.00 | 0.00 | 36 | 1008.4 |
| 20260507075006 | 92 | 182 | 4.0 | 11.0 | 0.00 | 0.00 | 0.00 | 36 | 1008.4 |
| 20260507074804 | 92 | 121 | 4.0 | 11.0 | 0.00 | 0.00 | 0.00 | 36 | 1008.4 |
| 20260507074703 | 92 | 102 | 6.0 | 11.0 | 0.00 | 0.00 | 0.00 | 36 | 1008.5 |
| 20260507074603 | 92 | 118 | 6.0 | 11.0 | 0.00 | 0.00 | 0.00 | 36 | 1008.5 |
| 20260507074506 | 92 | 153 | 6.0 | 11.0 | 0.00 | 0.00 | 0.00 | 36 | 1008.5 |
| 20260507074407 | 92 | 187 | 6.0 | 11.0 | 0.00 | 0.00 | 0.00 | 37 | 1008.5 |
| 20260507074302 | 92 | 124 | 5.0 | 11.0 | 0.00 | 0.00 | 0.00 | 36 | 1008.5 |
| 20260507074104 | 91 | 11 | 3.0 | 11.0 | 0.00 | 0.00 | 0.00 | 36 | 1008.5 |
| 20260507074012 | 91 | 171 | 4.0 | 11.0 | 0.00 | 0.00 | 0.00 | 36 | 1008.5 |
| 20260507073904 | 91 | 157 | 6.0 | 11.0 | 0.00 | 0.00 | 0.00 | 36 | 1008.5 |
| 20260507073805 | 91 | 175 | 8.0 | 12.0 | 0.00 | 0.00 | 0.00 | 36 | 1008.5 |
| 20260507073703 | 91 | 129 | 7.0 | 12.0 | 0.00 | 0.00 | 0.00 | 36 | 1008.5 |
| 20260507073604 | 91 | 94 | 4.0 | 15.0 | 0.00 | 0.00 | 0.00 | 36 | 1008.5 |
| 20260507073506 | 91 | 81 | 4.0 | 15.0 | 0.00 | 0.00 | 0.00 | 37 | 1008.5 |
| 20260507073407 | 91 | 111 | 5.0 | 15.0 | 0.00 | 0.00 | 0.00 | 36 | 1008.5 |
| 20260507073304 | 91 | 73 | 5.0 | 15.0 | 0.00 | 0.00 | 0.00 | 36 | 1008.4 |
| 20260507073203 | 91 | 76 | 4.0 | 15.0 | 0.00 | 0.00 | 0.00 | 36 | 1008.6 |
| 20260507073104 | 91 | 142 | 3.0 | 15.0 | 0.00 | 0.00 | 0.00 | 36 | 1008.6 |
| 20260507072906 | 91 | 75 | 9.0 | 15.0 | 0.00 | 0.00 | 0.00 | 36 | 1008.5 |
| 20260507072703 | 91 | 145 | 4.0 | 12.0 | 0.00 | 0.00 | 0.00 | 36 | 1008.4 |
| 20260507072403 | 90 | 99 | 5.0 | 12.0 | 0.00 | 0.00 | 0.00 | 36 | 1008.5 |
| 20260507072306 | 91 | 147 | 7.0 | 12.0 | 0.00 | 0.00 | 0.00 | 36 | 1008.6 |
| 20260507072204 | 90 | 174 | 8.0 | 13.0 | 0.00 | 0.00 | 0.00 | 36 | 1008.5 |
| 20260507072102 | 90 | 130 | 7.0 | 13.0 | 0.00 | 0.00 | 0.00 | 36 | 1008.6 |
| 20260507072006 | 90 | 148 | 6.0 | 13.0 | 0.00 | 0.00 | 0.00 | 36 | 1008.6 |
| 20260507071803 | 90 | 108 | 4.0 | 13.0 | 0.00 | 0.00 | 0.00 | 36 | 1008.6 |
| 20260507071703 | 90 | 105 | 3.0 | 13.0 | 0.00 | 0.00 | 0.00 | 36 | 1008.6 |
| 20260507071505 | 90 | 103 | 7.0 | 13.0 | 0.00 | 0.00 | 0.00 | 36 | 1008.6 |
| 20260507071403 | 90 | 71 | 7.0 | 13.0 | 0.00 | 0.00 | 0.00 | 36 | 1008.5 |
| 20260507071304 | 90 | 70 | 6.0 | 10.0 | 0.00 | 0.00 | 0.00 | 36 | 1008.6 |
| 20260507071105 | 90 | 148 | 7.0 | 10.0 | 0.00 | 0.00 | 0.00 | 36 | 1008.7 |
| 20260507071008 | 90 | 172 | 6.0 | 11.0 | 0.00 | 0.00 | 0.00 | 37 | 1008.6 |
| 20260507070904 | 90 | 166 | 3.0 | 9.0 | 0.00 | 0.00 | 0.00 | 38 | 1008.7 |
| 20260507070802 | 90 | 198 | 3.0 | 12.0 | 0.00 | 0.00 | 0.00 | 37 | 1008.6 |
| 20260507070705 | 90 | 103 | 3.0 | 12.0 | 0.00 | 0.00 | 0.00 | 37 | 1008.6 |
| 20260507070506 | 90 | 108 | 4.0 | 13.0 | 0.00 | 0.00 | 0.00 | 37 | 1008.7 |
| 20260507070402 | 90 | 147 | 4.0 | 13.0 | 0.00 | 0.00 | 0.00 | 36 | 1008.8 |
| 20260507070303 | 90 | 80 | 3.0 | 13.0 | 0.00 | 0.00 | 0.00 | 36 | 1008.7 |
| 20260507070202 | 90 | 98 | 6.0 | 13.0 | 0.00 | 0.00 | 0.00 | 36 | 1008.8 |
| 20260507070012 | 90 | 126 | 7.0 | 13.0 | 0.00 | 0.00 | 0.00 | 37 | 1008.8 |
| 20260507065903 | 90 | 115 | 5.0 | 13.0 | 0.00 | 0.00 | 0.00 | 37 | 1008.8 |
| 20260507065803 | 90 | 95 | 6.0 | 13.0 | 0.00 | 0.00 | 0.00 | 37 | 1008.8 |
| 20260507065704 | 90 | 95 | 7.0 | 13.0 | 0.00 | 0.00 | 0.00 | 37 | 1008.8 |
| 20260507065403 | 89 | 111 | 6.0 | 11.0 | 0.00 | 0.00 | 0.00 | 36 | 1008.8 |
| 20260507065305 | 90 | 116 | 5.0 | 12.0 | 0.00 | 0.00 | 0.00 | 36 | 1008.8 |
| 20260507065203 | 89 | 96 | 5.0 | 12.0 | 0.00 | 0.00 | 0.00 | 37 | 1008.8 |
| 20260507065103 | 89 | 144 | 4.0 | 12.0 | 0.00 | 0.00 | 0.00 | 37 | 1008.9 |
| 20260507064903 | 89 | 89 | 7.0 | 12.0 | 0.00 | 0.00 | 0.00 | 37 | 1008.9 |
| 20260507064803 | 90 | 106 | 6.0 | 12.0 | 0.00 | 0.00 | 0.00 | 36 | 1008.9 |
| 20260507064703 | 90 | 107 | 7.0 | 12.0 | 0.00 | 0.00 | 0.00 | 36 | 1008.9 |
| 20260507064507 | 90 | 91 | 7.0 | 12.0 | 0.00 | 0.00 | 0.00 | 37 | 1008.9 |
| 20260507064403 | 90 | 72 | 4.0 | 9.0 | 0.00 | 0.00 | 0.00 | 37 | 1008.8 |
| 20260507064305 | 90 | 72 | 2.0 | 8.0 | 0.00 | 0.00 | 0.00 | 37 | 1008.8 |
| 20260507064204 | 89 | 97 | 3.0 | 8.0 | 0.00 | 0.00 | 0.00 | 37 | 1008.8 |
| 20260507064104 | 89 | 89 | 4.0 | 8.0 | 0.00 | 0.00 | 0.00 | 37 | 1008.9 |
| 20260507064007 | 89 | 88 | 3.0 | 11.0 | 0.00 | 0.00 | 0.00 | 37 | 1008.9 |
| 20260507063905 | 89 | 64 | 3.0 | 11.0 | 0.00 | 0.00 | 0.00 | 38 | 1008.9 |
| 20260507063804 | 89 | 79 | 5.0 | 11.0 | 0.00 | 0.00 | 0.00 | 38 | 1008.9 |
| 20260507063710 | 89 | 86 | 4.0 | 11.0 | 0.00 | 0.00 | 0.00 | 37 | 1008.9 |
| 20260507063604 | 89 | 101 | 3.0 | 11.0 | 0.00 | 0.00 | 0.00 | 37 | 1008.9 |
| 20260507063504 | 89 | 57 | 3.0 | 11.0 | 0.00 | 0.00 | 0.00 | 37 | 1008.9 |
| 20260507063404 | 89 | 22 | 3.0 | 11.0 | 0.00 | 0.00 | 0.00 | 36 | 1008.9 |
| 20260507063204 | 89 | 71 | 6.0 | 11.0 | 0.00 | 0.00 | 0.00 | 36 | 1008.9 |
| 20260507063100 | 89 | 79 | 6.0 | 10.0 | 0.00 | 0.00 | 0.00 | 36 | 1008.9 |
| 20260507063006 | 89 | 147 | 6.0 | 10.0 | 0.00 | 0.00 | 0.00 | 37 | 1009.0 |
| 20260507062902 | 89 | 112 | 6.0 | 11.0 | 0.00 | 0.00 | 0.00 | 37 | 1008.9 |
| 20260507062804 | 89 | 94 | 5.0 | 11.0 | 0.00 | 0.00 | 0.00 | 37 | 1008.9 |
| 20260507062702 | 89 | 190 | 5.0 | 11.0 | 0.00 | 0.00 | 0.00 | 37 | 1009.0 |
| 20260507062605 | 89 | 111 | 5.0 | 11.0 | 0.00 | 0.00 | 0.00 | 37 | 1009.1 |
| 20260507062505 | 89 | 115 | 5.0 | 11.0 | 0.00 | 0.00 | 0.00 | 36 | 1009.0 |
| 20260507062405 | 89 | 73 | 6.0 | 11.0 | 0.00 | 0.00 | 0.00 | 37 | 1009.1 |
| 20260507062305 | 89 | 75 | 5.0 | 11.0 | 0.00 | 0.00 | 0.00 | 37 | 1009.0 |
| 20260507062203 | 88 | 111 | 5.0 | 11.0 | 0.00 | 0.00 | 0.00 | 37 | 1009.1 |
| 20260507062007 | 88 | 79 | 3.0 | 11.0 | 0.00 | 0.00 | 0.00 | 37 | 1009.1 |
| 20260507061903 | 88 | 169 | 3.0 | 11.0 | 0.00 | 0.00 | 0.00 | 37 | 1009.1 |
| 20260507061803 | 88 | 96 | 5.0 | 11.0 | 0.00 | 0.00 | 0.00 | 36 | 1009.1 |
| 20260507061702 | 88 | 98 | 6.0 | 11.0 | 0.00 | 0.00 | 0.00 | 37 | 1009.2 |
| 20260507061605 | 88 | 101 | 6.0 | 11.0 | 0.00 | 0.00 | 0.00 | 37 | 1009.2 |
| 20260507061506 | 88 | 67 | 8.0 | 11.0 | 0.00 | 0.00 | 0.00 | 36 | 1009.1 |
| 20260507061403 | 89 | 103 | 7.0 | 11.0 | 0.00 | 0.00 | 0.00 | 36 | 1009.1 |
| 20260507061304 | 89 | 105 | 4.0 | 10.0 | 0.00 | 0.00 | 0.00 | 36 | 1009.2 |
| 20260507061203 | 89 | 164 | 3.0 | 9.0 | 0.00 | 0.00 | 0.00 | 36 | 1009.3 |
| 20260507061105 | 89 | 154 | 4.0 | 9.0 | 0.00 | 0.00 | 0.00 | 36 | 1009.2 |
| 20260507061006 | 88 | 188 | 3.0 | 9.0 | 0.00 | 0.00 | 0.00 | 36 | 1009.3 |
| 20260507060807 | 88 | 107 | 5.0 | 9.0 | 0.00 | 0.00 | 0.00 | 36 | 1009.2 |
| 20260507060705 | 88 | 182 | 6.0 | 9.0 | 0.00 | 0.00 | 0.00 | 36 | 1009.2 |
| 20260507060402 | 88 | 95 | 4.0 | 9.0 | 0.00 | 0.00 | 0.00 | 37 | 1009.3 |
| 20260507060301 | 88 | 141 | 5.0 | 9.0 | 0.00 | 0.00 | 0.00 | 37 | 1009.3 |
| 20260507060104 | 88 | 112 | 5.0 | 9.0 | 0.00 | 0.00 | 0.00 | 36 | 1009.3 |
| 20260507060011 | 88 | 114 | 5.0 | 9.0 | 0.00 | 0.00 | 0.00 | 37 | 1009.3 |
| 20260507055905 | 88 | 175 | 6.0 | 10.0 | 0.00 | 0.00 | 0.00 | 37 | 1009.3 |
| 20260507055803 | 88 | 174 | 5.0 | 10.0 | 0.00 | 0.00 | 0.00 | 37 | 1009.4 |
| 20260507055704 | 88 | 148 | 3.0 | 10.0 | 0.00 | 0.00 | 0.00 | 37 | 1009.4 |
| 20260507055602 | 88 | 151 | 3.0 | 10.0 | 0.00 | 0.00 | 0.00 | 38 | 1009.3 |
| 20260507055505 | 88 | 184 | 5.0 | 11.0 | 0.00 | 0.00 | 0.00 | 37 | 1009.3 |
| 20260507055404 | 88 | 113 | 5.0 | 11.0 | 0.00 | 0.00 | 0.00 | 37 | 1009.3 |
| 20260507055305 | 88 | 156 | 5.0 | 11.0 | 0.00 | 0.00 | 0.00 | 37 | 1009.3 |
| 20260507055203 | 87 | 204 | 7.0 | 11.0 | 0.00 | 0.00 | 0.00 | 37 | 1009.3 |
| 20260507055006 | 87 | 162 | 7.0 | 11.0 | 0.00 | 0.00 | 0.00 | 37 | 1009.2 |
| 20260507054904 | 87 | 140 | 6.0 | 11.0 | 0.00 | 0.00 | 0.00 | 38 | 1009.3 |
| 20260507054805 | 87 | 168 | 6.0 | 11.0 | 0.00 | 0.00 | 0.00 | 38 | 1009.3 |
| 20260507054704 | 87 | 148 | 6.0 | 11.0 | 0.00 | 0.00 | 0.00 | 37 | 1009.3 |
| 20260507054607 | 87 | 65 | 4.0 | 10.0 | 0.00 | 0.00 | 0.00 | 37 | 1009.3 |
| 20260507054405 | 87 | 123 | 4.0 | 10.0 | 0.00 | 0.00 | 0.00 | 37 | 1009.2 |
| 20260507054302 | 87 | 101 | 5.0 | 11.0 | 0.00 | 0.00 | 0.00 | 37 | 1009.3 |
| 20260507054203 | 87 | 63 | 6.0 | 11.0 | 0.00 | 0.00 | 0.00 | 37 | 1009.2 |
| 20260507053903 | 87 | 28 | 6.0 | 11.0 | 0.00 | 0.00 | 0.00 | 37 | 1009.2 |
| 20260507053803 | 87 | 132 | 6.0 | 11.0 | 0.00 | 0.00 | 0.00 | 37 | 1009.3 |
| 20260507053706 | 87 | 80 | 8.0 | 11.0 | 0.00 | 0.00 | 0.00 | 37 | 1009.3 |
| 20260507053604 | 87 | 100 | 8.0 | 11.0 | 0.00 | 0.00 | 0.00 | 37 | 1009.2 |
| 20260507053302 | 87 | 91 | 6.0 | 10.0 | 0.00 | 0.00 | 0.00 | 38 | 1009.3 |
| 20260507053200 | 87 | 106 | 5.0 | 11.0 | 0.00 | 0.00 | 0.00 | 38 | 1009.2 |
| 20260507053106 | 87 | 141 | 3.0 | 11.0 | 0.00 | 0.00 | 0.00 | 38 | 1009.2 |
| 20260507053006 | 87 | 88 | 3.0 | 11.0 | 0.00 | 0.00 | 0.00 | 38 | 1009.2 |
| 20260507052903 | 86 | 50 | 3.0 | 11.0 | 0.00 | 0.00 | 0.00 | 38 | 1009.2 |
| 20260507052802 | 86 | 56 | 4.0 | 11.0 | 0.00 | 0.00 | 0.00 | 38 | 1009.4 |
| 20260507052704 | 86 | 103 | 5.0 | 11.0 | 0.00 | 0.00 | 0.00 | 38 | 1009.3 |
| 20260507052604 | 86 | 106 | 7.0 | 11.0 | 0.00 | 0.00 | 0.00 | 38 | 1009.3 |
| 20260507052505 | 86 | 108 | 7.0 | 11.0 | 0.00 | 0.00 | 0.00 | 38 | 1009.4 |
| 20260507052203 | 86 | 105 | 5.0 | 10.0 | 0.00 | 0.00 | 0.00 | 38 | 1009.3 |
| 20260507052103 | 86 | 76 | 7.0 | 10.0 | 0.00 | 0.00 | 0.00 | 38 | 1009.3 |
| 20260507052005 | 87 | 88 | 8.0 | 10.0 | 0.00 | 0.00 | 0.00 | 38 | 1009.3 |
| 20260507051904 | 87 | 73 | 5.0 | 10.0 | 0.00 | 0.00 | 0.00 | 38 | 1009.4 |
| 20260507051703 | 87 | 136 | 3.0 | 8.0 | 0.00 | 0.00 | 0.00 | 39 | 1009.4 |
| 20260507051303 | 87 | 81 | 4.0 | 10.0 | 0.00 | 0.00 | 0.00 | 38 | 1009.4 |
| 20260507051203 | 87 | 88 | 3.0 | 10.0 | 0.00 | 0.00 | 0.00 | 39 | 1009.3 |
| 20260507051103 | 86 | 95 | 3.0 | 10.0 | 0.00 | 0.00 | 0.00 | 39 | 1009.3 |
| 20260507051008 | 86 | 81 | 4.0 | 10.0 | 0.00 | 0.00 | 0.00 | 38 | 1009.4 |
| 20260507050907 | 86 | 116 | 6.0 | 10.0 | 0.00 | 0.00 | 0.00 | 38 | 1009.2 |
| 20260507050803 | 87 | 87 | 7.0 | 10.0 | 0.00 | 0.00 | 0.00 | 38 | 1009.4 |
| 20260507050705 | 87 | 107 | 5.0 | 10.0 | 0.00 | 0.00 | 0.00 | 40 | 1009.4 |
| 20260507050604 | 86 | 127 | 4.0 | 9.0 | 0.00 | 0.00 | 0.00 | 40 | 1009.3 |
| 20260507050506 | 86 | 146 | 4.0 | 9.0 | 0.00 | 0.00 | 0.00 | 39 | 1009.3 |
| 20260507050305 | 86 | 80 | 3.0 | 9.0 | 0.00 | 0.00 | 0.00 | 39 | 1009.3 |
| 20260507050103 | 86 | 111 | 4.0 | 9.0 | 0.00 | 0.00 | 0.00 | 39 | 1009.3 |
| 20260507050008 | 86 | 141 | 4.0 | 9.0 | 0.00 | 0.00 | 0.00 | 39 | 1009.4 |
| 20260507045904 | 86 | 151 | 2.0 | 7.0 | 0.00 | 0.00 | 0.00 | 39 | 1009.4 |
| 20260507045803 | 86 | 32 | 3.0 | 7.0 | 0.00 | 0.00 | 0.00 | 40 | 1009.3 |
| 20260507045704 | 86 | 159 | 4.0 | 7.0 | 0.00 | 0.00 | 0.00 | 40 | 1009.4 |
| 20260507045403 | 86 | 116 | 2.0 | 9.0 | 0.00 | 0.00 | 0.00 | 39 | 1009.4 |
| 20260507045306 | 85 | 84 | 2.0 | 9.0 | 0.00 | 0.00 | 0.00 | 40 | 1009.3 |
| 20260507045204 | 85 | 109 | 2.0 | 9.0 | 0.00 | 0.00 | 0.00 | 41 | 1009.4 |
| 20260507045004 | 85 | 109 | 4.0 | 9.0 | 0.00 | 0.00 | 0.00 | 40 | 1009.3 |
| 20260507044803 | 85 | 136 | 6.0 | 9.0 | 0.00 | 0.00 | 0.00 | 40 | 1009.2 |
| 20260507044604 | 85 | 101 | 5.0 | 9.0 | 0.00 | 0.00 | 0.00 | 39 | 1009.3 |
| 20260507044504 | 85 | 80 | 4.0 | 9.0 | 0.00 | 0.00 | 0.00 | 39 | 1009.3 |
| 20260507044403 | 85 | 140 | 4.0 | 9.0 | 0.00 | 0.00 | 0.00 | 39 | 1009.2 |
| 20260507044203 | 85 | 147 | 5.0 | 9.0 | 0.00 | 0.00 | 0.00 | 39 | 1009.2 |
| 20260507044102 | 85 | 96 | 6.0 | 9.0 | 0.00 | 0.00 | 0.00 | 39 | 1009.3 |
| 20260507044006 | 85 | 105 | 5.0 | 9.0 | 0.00 | 0.00 | 0.00 | 39 | 1009.2 |
| 20260507043902 | 85 | 115 | 3.0 | 9.0 | 0.00 | 0.00 | 0.00 | 40 | 1009.2 |
| 20260507043802 | 85 | 31 | 4.0 | 9.0 | 0.00 | 0.00 | 0.00 | 40 | 1009.3 |
| 20260507043704 | 85 | 80 | 5.0 | 9.0 | 0.00 | 0.00 | 0.00 | 40 | 1009.2 |
| 20260507043602 | 85 | 96 | 4.0 | 9.0 | 0.00 | 0.00 | 0.00 | 41 | 1009.2 |
| 20260507043505 | 85 | 89 | 5.0 | 9.0 | 0.00 | 0.00 | 0.00 | 40 | 1009.2 |
| 20260507043403 | 85 | 80 | 5.0 | 9.0 | 0.00 | 0.00 | 0.00 | 40 | 1009.2 |
| 20260507043303 | 85 | 113 | 3.0 | 8.0 | 0.00 | 0.00 | 0.00 | 40 | 1009.2 |
| 20260507043102 | 84 | 80 | 3.0 | 9.0 | 0.00 | 0.00 | 0.00 | 40 | 1009.3 |
| 20260507043006 | 84 | 111 | 3.0 | 9.0 | 0.00 | 0.00 | 0.00 | 41 | 1009.2 |
| 20260507042901 | 84 | 165 | 2.0 | 9.0 | 0.00 | 0.00 | 0.00 | 41 | 1009.2 |
| 20260507042803 | 84 | 137 | 4.0 | 9.0 | 0.00 | 0.00 | 0.00 | 41 | 1009.1 |
| 20260507042505 | 84 | 143 | 5.0 | 9.0 | 0.00 | 0.00 | 0.00 | 41 | 1009.1 |
| 20260507042403 | 84 | 157 | 5.0 | 9.0 | 0.00 | 0.00 | 0.00 | 41 | 1009.2 |
| 20260507042306 | 84 | 113 | 4.0 | 9.0 | 0.00 | 0.00 | 0.00 | 41 | 1009.1 |
| 20260507042202 | 84 | 111 | 2.0 | 9.0 | 0.00 | 0.00 | 0.00 | 41 | 1009.2 |
| 20260507042006 | 84 | 155 | 5.0 | 10.0 | 0.00 | 0.00 | 0.00 | 41 | 1009.1 |
| 20260507041804 | 84 | 159 | 5.0 | 10.0 | 0.00 | 0.00 | 0.00 | 42 | 1009.1 |
| 20260507041703 | 84 | 179 | 4.0 | 10.0 | 0.00 | 0.00 | 0.00 | 42 | 1009.1 |
| 20260507041603 | 84 | 78 | 3.0 | 10.0 | 0.00 | 0.00 | 0.00 | 41 | 1009.1 |
| 20260507041302 | 84 | 124 | 7.0 | 10.0 | 0.00 | 0.00 | 0.00 | 41 | 1009.1 |
| 20260507041202 | 84 | 104 | 7.0 | 10.0 | 0.00 | 0.00 | 0.00 | 42 | 1009.1 |
| 20260507041103 | 84 | 127 | 7.0 | 10.0 | 0.00 | 0.00 | 0.00 | 41 | 1009.0 |
| 20260507041006 | 84 | 136 | 5.0 | 10.0 | 0.00 | 0.00 | 0.00 | 41 | 1009.1 |
| 20260507040903 | 84 | 194 | 4.0 | 10.0 | 0.00 | 0.00 | 0.00 | 41 | 1009.1 |
| 20260507040804 | 84 | 112 | 5.0 | 10.0 | 0.00 | 0.00 | 0.00 | 41 | 1009.0 |
| 20260507040704 | 84 | 144 | 6.0 | 10.0 | 0.00 | 0.00 | 0.00 | 42 | 1009.0 |
| 20260507040559 | 84 | 163 | 6.0 | 10.0 | 0.00 | 0.00 | 0.00 | 42 | 1009.0 |
| 20260507040506 | 84 | 120 | 5.0 | 9.0 | 0.00 | 0.00 | 0.00 | 42 | 1009.0 |
| 20260507040403 | 83 | 155 | 4.0 | 8.0 | 0.00 | 0.00 | 0.00 | 42 | 1009.1 |
| 20260507040303 | 83 | 172 | 3.0 | 8.0 | 0.00 | 0.00 | 0.00 | 42 | 1009.0 |
| 20260507040203 | 83 | 145 | 4.0 | 8.0 | 0.00 | 0.00 | 0.00 | 42 | 1009.0 |
| 20260507040009 | 83 | 144 | 5.0 | 8.0 | 0.00 | 0.00 | 0.00 | 42 | 1009.1 |
| 20260507035706 | 83 | 141 | 3.0 | 8.0 | 0.00 | 0.00 | 0.00 | 43 | 1009.0 |
| 20260507035604 | 83 | 159 | 3.0 | 8.0 | 0.00 | 0.00 | 0.00 | 44 | 1009.0 |
| 20260507035506 | 83 | 183 | 3.0 | 8.0 | 0.00 | 0.00 | 0.00 | 44 | 1009.0 |
| 20260507035403 | 83 | 80 | 3.0 | 8.0 | 0.00 | 0.00 | 0.00 | 45 | 1009.0 |
| 20260507035306 | 83 | 117 | 3.0 | 7.0 | 0.00 | 0.00 | 0.00 | 45 | 1009.0 |
| 20260507035203 | 83 | 117 | 4.0 | 7.0 | 0.00 | 0.00 | 0.00 | 45 | 1009.0 |
| 20260507035104 | 83 | 119 | 4.0 | 7.0 | 0.00 | 0.00 | 0.00 | 45 | 1009.0 |
| 20260507035006 | 83 | 85 | 2.0 | 7.0 | 0.00 | 0.00 | 0.00 | 46 | 1009.0 |
| 20260507034903 | 82 | 85 | 2.0 | 7.0 | 0.00 | 0.00 | 0.00 | 46 | 1009.0 |
| 20260507034703 | 82 | 111 | 4.0 | 9.0 | 0.00 | 0.00 | 0.00 | 45 | 1008.9 |
| 20260507034603 | 82 | 115 | 3.0 | 10.0 | 0.00 | 0.00 | 0.00 | 46 | 1009.0 |
| 20260507034506 | 82 | 91 | 1.0 | 10.0 | 0.00 | 0.00 | 0.00 | 46 | 1009.0 |
| 20260507034404 | 82 | 121 | 3.0 | 10.0 | 0.00 | 0.00 | 0.00 | 46 | 1008.9 |
| 20260507034303 | 82 | 140 | 4.0 | 10.0 | 0.00 | 0.00 | 0.00 | 45 | 1009.0 |
| 20260507034003 | 82 | 112 | 7.0 | 10.0 | 0.00 | 0.00 | 0.00 | 45 | 1008.9 |
| 20260507033703 | 82 | 143 | 6.0 | 9.0 | 0.00 | 0.00 | 0.00 | 45 | 1008.9 |
| 20260507033601 | 82 | 116 | 4.0 | 9.0 | 0.00 | 0.00 | 0.00 | 45 | 1008.9 |
| 20260507033505 | 82 | 126 | 3.0 | 9.0 | 0.00 | 0.00 | 0.00 | 46 | 1008.8 |
| 20260507033404 | 82 | 99 | 4.0 | 9.0 | 0.00 | 0.00 | 0.00 | 45 | 1008.9 |
| 20260507033203 | 82 | 139 | 4.0 | 9.0 | 0.00 | 0.00 | 0.00 | 46 | 1008.9 |
| 20260507033103 | 82 | 119 | 5.0 | 9.0 | 0.00 | 0.00 | 0.00 | 45 | 1008.8 |
| 20260507033007 | 82 | 86 | 5.0 | 9.0 | 0.00 | 0.00 | 0.00 | 46 | 1008.9 |
| 20260507032903 | 82 | 147 | 6.0 | 9.0 | 0.00 | 0.00 | 0.00 | 46 | 1008.8 |
| 20260507032802 | 82 | 132 | 4.0 | 8.0 | 0.00 | 0.00 | 0.00 | 46 | 1008.8 |
| 20260507032703 | 81 | 109 | 3.0 | 8.0 | 0.00 | 0.00 | 0.00 | 46 | 1008.8 |
| 20260507032607 | 81 | 107 | 2.0 | 8.0 | 0.00 | 0.00 | 0.00 | 46 | 1008.8 |
| 20260507032508 | 81 | 173 | 3.0 | 9.0 | 0.00 | 0.00 | 0.00 | 46 | 1008.8 |
| 20260507032403 | 81 | 81 | 5.0 | 9.0 | 0.00 | 0.00 | 0.00 | 46 | 1008.8 |
| 20260507032305 | 81 | 150 | 4.0 | 9.0 | 0.00 | 0.00 | 0.00 | 47 | 1008.8 |
| 20260507032203 | 81 | 165 | 3.0 | 9.0 | 0.00 | 0.00 | 0.00 | 47 | 1008.9 |
| 20260507032103 | 81 | 139 | 4.0 | 9.0 | 0.00 | 0.00 | 0.00 | 47 | 1008.8 |
| 20260507032007 | 81 | 135 | 4.0 | 9.0 | 0.00 | 0.00 | 0.00 | 47 | 1008.9 |
| 20260507031903 | 81 | 130 | 3.0 | 9.0 | 0.00 | 0.00 | 0.00 | 47 | 1008.9 |
| 20260507031802 | 81 | 123 | 4.0 | 9.0 | 0.00 | 0.00 | 0.00 | 47 | 1008.9 |
| 20260507031703 | 81 | 150 | 5.0 | 9.0 | 0.00 | 0.00 | 0.00 | 47 | 1008.8 |
| 20260507031604 | 81 | 140 | 5.0 | 9.0 | 0.00 | 0.00 | 0.00 | 47 | 1008.8 |
| 20260507031404 | 81 | 69 | 5.0 | 9.0 | 0.00 | 0.00 | 0.00 | 46 | 1008.8 |
| 20260507031202 | 81 | 125 | 4.0 | 9.0 | 0.00 | 0.00 | 0.00 | 48 | 1008.7 |
| 20260507031007 | 80 | 113 | 3.0 | 7.0 | 0.00 | 0.00 | 0.00 | 49 | 1008.8 |
| 20260507030906 | 80 | 157 | 3.0 | 8.0 | 0.00 | 0.00 | 0.00 | 49 | 1008.8 |
| 20260507030806 | 80 | 103 | 3.0 | 9.0 | 0.00 | 0.00 | 0.00 | 49 | 1008.8 |
| 20260507030602 | 80 | 184 | 3.0 | 11.0 | 0.00 | 0.00 | 0.00 | 49 | 1008.6 |
| 20260507030505 | 80 | 153 | 3.0 | 11.0 | 0.00 | 0.00 | 0.00 | 49 | 1008.7 |
| 20260507030404 | 80 | 126 | 2.0 | 11.0 | 0.00 | 0.00 | 0.00 | 49 | 1008.7 |
| 20260507030303 | 80 | 208 | 3.0 | 11.0 | 0.00 | 0.00 | 0.00 | 49 | 1008.7 |
| 20260507030203 | 80 | 108 | 5.0 | 11.0 | 0.00 | 0.00 | 0.00 | 48 | 1008.6 |
| 20260507030009 | 80 | 159 | 7.0 | 11.0 | 0.00 | 0.00 | 0.00 | 47 | 1008.6 |
| 20260507025902 | 80 | 130 | 7.0 | 11.0 | 0.00 | 0.00 | 0.00 | 48 | 1008.6 |
| 20260507025802 | 80 | 139 | 6.0 | 11.0 | 0.00 | 0.00 | 0.00 | 48 | 1008.6 |
| 20260507025603 | 80 | 105 | 6.0 | 11.0 | 0.00 | 0.00 | 0.00 | 49 | 1008.6 |
| 20260507025506 | 79 | 98 | 6.0 | 11.0 | 0.00 | 0.00 | 0.00 | 49 | 1008.6 |
| 20260507025359 | 79 | 106 | 5.0 | 11.0 | 0.00 | 0.00 | 0.00 | 49 | 1008.5 |
| 20260507025306 | 79 | 99 | 4.0 | 12.0 | 0.00 | 0.00 | 0.00 | 49 | 1008.5 |
| 20260507025103 | 79 | 118 | 7.0 | 12.0 | 0.00 | 0.00 | 0.00 | 49 | 1008.5 |
| 20260507025006 | 79 | 96 | 7.0 | 12.0 | 0.00 | 0.00 | 0.00 | 49 | 1008.5 |
| 20260507024903 | 79 | 117 | 7.0 | 12.0 | 0.00 | 0.00 | 0.00 | 49 | 1008.5 |
| 20260507024802 | 79 | 148 | 7.0 | 12.0 | 0.00 | 0.00 | 0.00 | 49 | 1008.5 |
| 20260507024604 | 79 | 94 | 7.0 | 12.0 | 0.00 | 0.00 | 0.00 | 49 | 1008.5 |
| 20260507024504 | 79 | 89 | 6.0 | 12.0 | 0.00 | 0.00 | 0.00 | 49 | 1008.5 |
| 20260507024303 | 79 | 159 | 5.0 | 11.0 | 0.00 | 0.00 | 0.00 | 50 | 1008.5 |
| 20260507024203 | 79 | 134 | 4.0 | 11.0 | 0.00 | 0.00 | 0.00 | 50 | 1008.4 |
| 20260507024102 | 79 | 115 | 3.0 | 11.0 | 0.00 | 0.00 | 0.00 | 50 | 1008.4 |
| 20260507024006 | 79 | 138 | 4.0 | 11.0 | 0.00 | 0.00 | 0.00 | 50 | 1008.4 |
| 20260507023902 | 79 | 108 | 4.0 | 11.0 | 0.00 | 0.00 | 0.00 | 50 | 1008.5 |
| 20260507023804 | 78 | 118 | 5.0 | 11.0 | 0.00 | 0.00 | 0.00 | 50 | 1008.5 |
| 20260507023703 | 78 | 109 | 7.0 | 11.0 | 0.00 | 0.00 | 0.00 | 50 | 1008.4 |
| 20260507023604 | 78 | 94 | 8.0 | 11.0 | 0.00 | 0.00 | 0.00 | 50 | 1008.4 |
| 20260507023503 | 78 | 103 | 6.0 | 10.0 | 0.00 | 0.00 | 0.00 | 51 | 1008.4 |
| 20260507023402 | 78 | 117 | 5.0 | 8.0 | 0.00 | 0.00 | 0.00 | 51 | 1008.4 |
| 20260507023302 | 78 | 150 | 5.0 | 8.0 | 0.00 | 0.00 | 0.00 | 52 | 1008.5 |
| 20260507023203 | 78 | 90 | 3.0 | 6.0 | 0.00 | 0.00 | 0.00 | 52 | 1008.4 |
| 20260507023103 | 78 | 47 | 3.0 | 7.0 | 0.00 | 0.00 | 0.00 | 52 | 1008.5 |
| 20260507023008 | 78 | 134 | 3.0 | 7.0 | 0.00 | 0.00 | 0.00 | 53 | 1008.4 |
| 20260507022804 | 78 | 86 | 4.0 | 7.0 | 0.00 | 0.00 | 0.00 | 53 | 1008.4 |
| 20260507022704 | 77 | 92 | 4.0 | 7.0 | 0.00 | 0.00 | 0.00 | 53 | 1008.4 |
| 20260507022603 | 77 | 92 | 3.0 | 7.0 | 0.00 | 0.00 | 0.00 | 54 | 1008.4 |
| 20260507022506 | 77 | 106 | 2.0 | 7.0 | 0.00 | 0.00 | 0.00 | 54 | 1008.3 |
| 20260507022302 | 77 | 136 | 2.0 | 7.0 | 0.00 | 0.00 | 0.00 | 54 | 1008.4 |
| 20260507022203 | 77 | 57 | 3.0 | 7.0 | 0.00 | 0.00 | 0.00 | 54 | 1008.4 |
| 20260507022058 | 77 | 119 | 3.0 | 7.0 | 0.00 | 0.00 | 0.00 | 54 | 1008.4 |
| 20260507021903 | 77 | 121 | 3.0 | 7.0 | 0.00 | 0.00 | 0.00 | 54 | 1008.4 |
| 20260507021804 | 76 | 86 | 3.0 | 7.0 | 0.00 | 0.00 | 0.00 | 54 | 1008.4 |
| 20260507021702 | 76 | 111 | 4.0 | 7.0 | 0.00 | 0.00 | 0.00 | 54 | 1008.3 |
| 20260507021603 | 76 | 102 | 4.0 | 7.0 | 0.00 | 0.00 | 0.00 | 55 | 1008.3 |
| 20260507021505 | 76 | 100 | 4.0 | 6.0 | 0.00 | 0.00 | 0.00 | 55 | 1008.3 |
| 20260507021401 | 76 | 86 | 4.0 | 6.0 | 0.00 | 0.00 | 0.00 | 55 | 1008.3 |
| 20260507021303 | 76 | 67 | 2.0 | 6.0 | 0.00 | 0.00 | 0.00 | 55 | 1008.3 |
| 20260507021101 | 76 | 72 | 2.0 | 6.0 | 0.00 | 0.00 | 0.00 | 55 | 1008.3 |
| 20260507020804 | 76 | 94 | 3.0 | 5.0 | 0.00 | 0.00 | 0.00 | 55 | 1008.3 |
| 20260507020703 | 76 | 137 | 3.0 | 5.0 | 0.00 | 0.00 | 0.00 | 55 | 1008.3 |
| 20260507020505 | 76 | 92 | 2.0 | 4.0 | 0.00 | 0.00 | 0.00 | 55 | 1008.3 |
| 20260507020403 | 76 | 85 | 2.0 | 4.0 | 0.00 | 0.00 | 0.00 | 55 | 1008.3 |
| 20260507020301 | 76 | 90 | 2.0 | 4.0 | 0.00 | 0.00 | 0.00 | 55 | 1008.2 |
| 20260507020009 | 75 | 103 | 2.0 | 4.0 | 0.00 | 0.00 | 0.00 | 55 | 1008.3 |
| 20260507015801 | 75 | 118 | 2.0 | 4.0 | 0.00 | 0.00 | 0.00 | 56 | 1008.3 |
| 20260507015601 | 75 | 60 | 2.0 | 4.0 | 0.00 | 0.00 | 0.00 | 56 | 1008.1 |
| 20260507015505 | 75 | 94 | 2.0 | 4.0 | 0.00 | 0.00 | 0.00 | 56 | 1008.3 |
| 20260507015404 | 75 | 88 | 1.0 | 4.0 | 0.00 | 0.00 | 0.00 | 56 | 1008.2 |
| 20260507015306 | 75 | 43 | 1.0 | 4.0 | 0.00 | 0.00 | 0.00 | 56 | 1008.1 |
| 20260507015204 | 75 | 153 | 1.0 | 6.0 | 0.00 | 0.00 | 0.00 | 56 | 1008.1 |
| 20260507015104 | 75 | 46 | 1.0 | 6.0 | 0.00 | 0.00 | 0.00 | 56 | 1008.1 |
| 20260507015006 | 75 | 53 | 1.0 | 6.0 | 0.00 | 0.00 | 0.00 | 56 | 1008.1 |
| 20260507014903 | 75 | 90 | 2.0 | 6.0 | 0.00 | 0.00 | 0.00 | 56 | 1008.0 |
| 20260507014801 | 75 | 69 | 2.0 | 6.0 | 0.00 | 0.00 | 0.00 | 56 | 1008.0 |
| 20260507014703 | 75 | 85 | 2.0 | 6.0 | 0.00 | 0.00 | 0.00 | 56 | 1008.0 |
| 20260507014603 | 75 | 22 | 2.0 | 6.0 | 0.00 | 0.00 | 0.00 | 56 | 1008.1 |
| 20260507014505 | 75 | 111 | 2.0 | 6.0 | 0.00 | 0.00 | 0.00 | 56 | 1008.0 |
| 20260507014401 | 75 | 57 | 2.0 | 6.0 | 0.00 | 0.00 | 0.00 | 56 | 1007.9 |
| 20260507014302 | 75 | 72 | 2.0 | 5.0 | 0.00 | 0.00 | 0.00 | 56 | 1007.9 |
| 20260507014203 | 75 | 103 | 2.0 | 5.0 | 0.00 | 0.00 | 0.00 | 56 | 1008.0 |
| 20260507014103 | 75 | 46 | 2.0 | 5.0 | 0.00 | 0.00 | 0.00 | 56 | 1007.9 |
| 20260507014006 | 75 | 98 | 2.0 | 6.0 | 0.00 | 0.00 | 0.00 | 57 | 1007.8 |
| 20260507013904 | 74 | 77 | 2.0 | 6.0 | 0.00 | 0.00 | 0.00 | 57 | 1007.8 |
| 20260507013803 | 74 | 96 | 1.0 | 6.0 | 0.00 | 0.00 | 0.00 | 57 | 1007.8 |
| 20260507013705 | 74 | 10 | 2.0 | 8.0 | 0.00 | 0.00 | 0.00 | 57 | 1007.8 |
| 20260507013602 | 74 | 76 | 2.0 | 8.0 | 0.00 | 0.00 | 0.00 | 57 | 1007.8 |
| 20260507013505 | 74 | 94 | 2.0 | 8.0 | 0.00 | 0.00 | 0.00 | 57 | 1007.8 |
| 20260507013402 | 74 | 16 | 2.0 | 8.0 | 0.00 | 0.00 | 0.00 | 57 | 1007.7 |
| 20260507013301 | 74 | 115 | 3.0 | 8.0 | 0.00 | 0.00 | 0.00 | 57 | 1007.8 |
| 20260507013202 | 74 | 102 | 3.0 | 8.0 | 0.00 | 0.00 | 0.00 | 57 | 1007.7 |
| 20260507013104 | 74 | 97 | 2.0 | 8.0 | 0.00 | 0.00 | 0.00 | 57 | 1007.7 |
| 20260507013005 | 74 | 98 | 3.0 | 8.0 | 0.00 | 0.00 | 0.00 | 57 | 1007.7 |
| 20260507012902 | 74 | 83 | 3.0 | 8.0 | 0.00 | 0.00 | 0.00 | 57 | 1007.8 |
| 20260507012803 | 74 | 80 | 2.0 | 8.0 | 0.00 | 0.00 | 0.00 | 57 | 1007.7 |
| 20260507012603 | 74 | 136 | 2.0 | 5.0 | 0.00 | 0.00 | 0.00 | 57 | 1007.6 |
| 20260507012506 | 74 | 90 | 2.0 | 6.0 | 0.00 | 0.00 | 0.00 | 57 | 1007.6 |
| 20260507012404 | 74 | 56 | 2.0 | 4.0 | 0.00 | 0.00 | 0.00 | 57 | 1007.7 |
| 20260507012305 | 74 | 86 | 2.0 | 4.0 | 0.00 | 0.00 | 0.00 | 57 | 1007.6 |
| 20260507012202 | 74 | 96 | 1.0 | 4.0 | 0.00 | 0.00 | 0.00 | 58 | 1007.6 |
| 20260507012101 | 74 | 107 | 1.0 | 4.0 | 0.00 | 0.00 | 0.00 | 58 | 1007.5 |
| 20260507012006 | 74 | 87 | 2.0 | 4.0 | 0.00 | 0.00 | 0.00 | 58 | 1007.6 |
| 20260507011903 | 74 | 88 | 2.0 | 4.0 | 0.00 | 0.00 | 0.00 | 58 | 1007.5 |
| 20260507011803 | 74 | 281 | 1.0 | 4.0 | 0.00 | 0.00 | 0.00 | 58 | 1007.4 |
| 20260507011701 | 74 | 89 | 1.0 | 4.0 | 0.00 | 0.00 | 0.00 | 58 | 1007.4 |
| 20260507011504 | 73 | 96 | 2.0 | 4.0 | 0.00 | 0.00 | 0.00 | 58 | 1007.4 |
| 20260507011404 | 73 | 107 | 2.0 | 4.0 | 0.00 | 0.00 | 0.00 | 58 | 1007.4 |
| 20260507011303 | 73 | 120 | 2.0 | 4.0 | 0.00 | 0.00 | 0.00 | 58 | 1007.4 |
| 20260507011204 | 73 | 103 | 2.0 | 4.0 | 0.00 | 0.00 | 0.00 | 58 | 1007.3 |
| 20260507011102 | 73 | 98 | 2.0 | 4.0 | 0.00 | 0.00 | 0.00 | 58 | 1007.4 |
| 20260507011007 | 73 | 85 | 3.0 | 4.0 | 0.00 | 0.00 | 0.00 | 58 | 1007.3 |
| 20260507010807 | 73 | 70 | 2.0 | 4.0 | 0.00 | 0.00 | 0.00 | 58 | 1007.3 |
| 20260507010701 | 73 | 73 | 2.0 | 4.0 | 0.00 | 0.00 | 0.00 | 58 | 1007.4 |
| 20260507010603 | 73 | 107 | 2.0 | 4.0 | 0.00 | 0.00 | 0.00 | 58 | 1007.3 |
| 20260507010403 | 73 | 95 | 2.0 | 4.0 | 0.00 | 0.00 | 0.00 | 58 | 1007.4 |
| 20260507010302 | 73 | 84 | 2.0 | 4.0 | 0.00 | 0.00 | 0.00 | 58 | 1007.3 |
| 20260507010211 | 73 | 152 | 1.0 | 4.0 | 0.00 | 0.00 | 0.00 | 58 | 1007.3 |
| 20260507010005 | 73 | 103 | 3.0 | 4.0 | 0.00 | 0.00 | 0.00 | 58 | 1007.2 |
| 20260507005902 | 73 | 90 | 2.0 | 4.0 | 0.00 | 0.00 | 0.00 | 58 | 1007.2 |
| 20260507005803 | 73 | 115 | 1.0 | 6.0 | 0.00 | 0.00 | 0.00 | 58 | 1007.2 |
| 20260507005606 | 73 | 78 | 1.0 | 6.0 | 0.00 | 0.00 | 0.00 | 58 | 1007.2 |
| 20260507005505 | 73 | 112 | 1.0 | 6.0 | 0.00 | 0.00 | 0.00 | 58 | 1007.2 |
| 20260507005402 | 73 | 93 | 2.0 | 6.0 | 0.00 | 0.00 | 0.00 | 58 | 1007.2 |
| 20260507005202 | 73 | 105 | 1.0 | 6.0 | 0.00 | 0.00 | 0.00 | 58 | 1007.1 |
| 20260507005106 | 73 | 82 | 2.0 | 6.0 | 0.00 | 0.00 | 0.00 | 58 | 1007.1 |
| 20260507005006 | 73 | 82 | 2.0 | 6.0 | 0.00 | 0.00 | 0.00 | 58 | 1007.1 |
| 20260507004758 | 73 | 89 | 2.0 | 6.0 | 0.00 | 0.00 | 0.00 | 58 | 1007.0 |
| 20260507004604 | 73 | 92 | 2.0 | 7.0 | 0.00 | 0.00 | 0.00 | 58 | 1007.0 |
| 20260507004500 | 73 | 50 | 2.0 | 7.0 | 0.00 | 0.00 | 0.00 | 58 | 1007.0 |
| 20260507004401 | 73 | 61 | 3.0 | 7.0 | 0.00 | 0.00 | 0.00 | 58 | 1007.0 |
| 20260507004202 | 73 | 115 | 3.0 | 7.0 | 0.00 | 0.00 | 0.00 | 58 | 1007.0 |
| 20260507004101 | 73 | 101 | 3.0 | 7.0 | 0.00 | 0.00 | 0.00 | 58 | 1006.9 |
| 20260507003905 | 73 | 121 | 3.0 | 7.0 | 0.00 | 0.00 | 0.00 | 58 | 1006.9 |
| 20260507003802 | 73 | 111 | 3.0 | 7.0 | 0.00 | 0.00 | 0.00 | 58 | 1006.9 |
| 20260507003601 | 73 | 100 | 3.0 | 6.0 | 0.00 | 0.00 | 0.00 | 58 | 1006.8 |
| 20260507003503 | 73 | 96 | 3.0 | 7.0 | 0.00 | 0.00 | 0.00 | 58 | 1006.8 |
| 20260507003400 | 73 | 128 | 2.0 | 6.0 | 0.00 | 0.00 | 0.00 | 58 | 1006.9 |
| 20260507003301 | 73 | 163 | 2.0 | 6.0 | 0.00 | 0.00 | 0.00 | 57 | 1006.8 |
| 20260507003202 | 73 | 97 | 3.0 | 6.0 | 0.00 | 0.00 | 0.00 | 57 | 1006.9 |
| 20260507003102 | 73 | 78 | 3.0 | 6.0 | 0.00 | 0.00 | 0.00 | 57 | 1006.8 |
| 20260507003003 | 73 | 94 | 3.0 | 6.0 | 0.00 | 0.00 | 0.00 | 57 | 1006.8 |
| 20260507002900 | 73 | 121 | 3.0 | 6.0 | 0.00 | 0.00 | 0.00 | 57 | 1006.8 |
| 20260507002805 | 73 | 106 | 3.0 | 6.0 | 0.00 | 0.00 | 0.00 | 57 | 1006.8 |
| 20260507002701 | 73 | 77 | 3.0 | 6.0 | 0.00 | 0.00 | 0.00 | 57 | 1006.8 |
| 20260507002600 | 73 | 90 | 3.0 | 6.0 | 0.00 | 0.00 | 0.00 | 57 | 1006.9 |
| 20260507002504 | 73 | 103 | 2.0 | 6.0 | 0.00 | 0.00 | 0.00 | 57 | 1006.9 |
| 20260507002401 | 73 | 111 | 2.0 | 6.0 | 0.00 | 0.00 | 0.00 | 57 | 1006.8 |
| 20260507002305 | 73 | 342 | 3.0 | 6.0 | 0.00 | 0.00 | 0.00 | 57 | 1006.8 |
| 20260507002004 | 74 | 128 | 2.0 | 7.0 | 0.00 | 0.00 | 0.00 | 57 | 1006.8 |
| 20260507001901 | 73 | 91 | 2.0 | 7.0 | 0.00 | 0.00 | 0.00 | 57 | 1006.8 |
| 20260507001802 | 73 | 103 | 3.0 | 7.0 | 0.00 | 0.00 | 0.00 | 57 | 1006.8 |
| 20260507001701 | 74 | 57 | 3.0 | 7.0 | 0.00 | 0.00 | 0.00 | 57 | 1006.8 |
| 20260507001602 | 74 | 84 | 2.0 | 7.0 | 0.00 | 0.00 | 0.00 | 57 | 1006.8 |
| 20260507001503 | 74 | 95 | 2.0 | 7.0 | 0.00 | 0.00 | 0.00 | 57 | 1006.7 |
| 20260507001402 | 74 | 101 | 2.0 | 7.0 | 0.00 | 0.00 | 0.00 | 57 | 1006.8 |
| 20260507001301 | 74 | 86 | 2.0 | 5.0 | 0.00 | 0.00 | 0.00 | 57 | 1006.7 |
| 20260507001202 | 74 | 67 | 3.0 | 5.0 | 0.00 | 0.00 | 0.00 | 57 | 1006.7 |
| 20260507001100 | 74 | 86 | 3.0 | 5.0 | 0.00 | 0.00 | 0.00 | 57 | 1006.7 |
| 20260507000859 | 74 | 84 | 2.0 | 6.0 | 0.00 | 0.00 | 0.00 | 57 | 1006.7 |
| 20260507000800 | 74 | 108 | 2.0 | 6.0 | 0.00 | 0.00 | 0.00 | 57 | 1006.7 |
| 20260507000601 | 74 | 87 | 3.0 | 6.0 | 0.00 | 0.00 | 0.00 | 56 | 1006.7 |
| 20260507000503 | 74 | 74 | 4.0 | 6.0 | 0.00 | 0.00 | 0.00 | 56 | 1006.7 |
| 20260507000401 | 74 | 107 | 3.0 | 6.0 | 0.00 | 0.00 | 0.00 | 56 | 1006.7 |
| 20260507000301 | 74 | 87 | 3.0 | 6.0 | 0.00 | 0.00 | 0.00 | 56 | 1006.6 |
| 20260507000200 | 74 | 101 | 2.0 | 5.0 | 0.00 | 0.00 | 0.00 | 56 | 1006.6 |
| 20260506235901 | 74 | 80 | 2.0 | 5.0 | 0.00 | 0.00 | 0.00 | 56 | 1006.6 |
| 20260506235803 | 74 | 108 | 3.0 | 5.0 | 0.00 | 0.00 | 0.00 | 56 | 1006.7 |
| 20260506235700 | 74 | 111 | 3.0 | 6.0 | 0.00 | 0.00 | 0.00 | 56 | 1006.6 |
| 20260506235604 | 74 | 116 | 3.0 | 6.0 | 0.00 | 0.00 | 0.00 | 56 | 1006.6 |
| 20260506235504 | 74 | 113 | 3.0 | 6.0 | 0.00 | 0.00 | 0.00 | 56 | 1006.6 |
| 20260506235403 | 74 | 91 | 3.0 | 6.0 | 0.00 | 0.00 | 0.00 | 57 | 1006.7 |
| 20260506235257 | 74 | 115 | 3.0 | 6.0 | 0.00 | 0.00 | 0.00 | 57 | 1006.6 |
| 20260506235200 | 74 | 107 | 2.0 | 6.0 | 0.00 | 0.00 | 0.00 | 57 | 1006.7 |
| 20260506234902 | 74 | 100 | 2.0 | 4.0 | 0.00 | 0.00 | 0.00 | 57 | 1006.6 |
| 20260506234801 | 74 | 119 | 1.0 | 4.0 | 0.00 | 0.00 | 0.00 | 57 | 1006.6 |
| 20260506234700 | 74 | 89 | 1.0 | 4.0 | 0.00 | 0.00 | 0.00 | 57 | 1006.6 |
| 20260506234601 | 74 | 97 | 2.0 | 6.0 | 0.00 | 0.00 | 0.00 | 57 | 1006.6 |
| 20260506234503 | 74 | 112 | 2.0 | 6.0 | 0.00 | 0.00 | 0.00 | 57 | 1006.6 |
| 20260506234401 | 74 | 94 | 2.0 | 6.0 | 0.00 | 0.00 | 0.00 | 57 | 1006.6 |
| 20260506234301 | 74 | 103 | 2.0 | 6.0 | 0.00 | 0.00 | 0.00 | 57 | 1006.6 |
| 20260506234200 | 74 | 113 | 2.0 | 6.0 | 0.00 | 0.00 | 0.00 | 57 | 1006.6 |
| 20260506234101 | 74 | 107 | 2.0 | 6.0 | 0.00 | 0.00 | 0.00 | 57 | 1006.6 |
| 20260506233802 | 74 | 103 | 3.0 | 6.0 | 0.00 | 0.00 | 0.00 | 57 | 1006.6 |
| 20260506233700 | 74 | 39 | 3.0 | 6.0 | 0.00 | 0.00 | 0.00 | 57 | 1006.4 |
| 20260506233600 | 74 | 99 | 3.0 | 6.0 | 0.00 | 0.00 | 0.00 | 57 | 1006.5 |
| 20260506233503 | 74 | 71 | 2.0 | 6.0 | 0.00 | 0.00 | 0.00 | 57 | 1006.4 |
| 20260506233401 | 74 | 108 | 2.0 | 4.0 | 0.00 | 0.00 | 0.00 | 58 | 1006.4 |
| 20260506233300 | 74 | 104 | 2.0 | 4.0 | 0.00 | 0.00 | 0.00 | 57 | 1006.4 |
| 20260506233200 | 74 | 98 | 2.0 | 4.0 | 0.00 | 0.00 | 0.00 | 57 | 1006.4 |
| 20260506232859 | 74 | 80 | 1.0 | 3.0 | 0.00 | 0.00 | 0.00 | 58 | 1006.4 |
| 20260506232759 | 74 | 28 | 1.0 | 3.0 | 0.00 | 0.00 | 0.00 | 58 | 1006.4 |
| 20260506232700 | 74 | 71 | 1.0 | 3.0 | 0.00 | 0.00 | 0.00 | 58 | 1006.4 |
| 20260506232600 | 74 | 92 | 1.0 | 3.0 | 0.00 | 0.00 | 0.00 | 58 | 1006.3 |
| 20260506232503 | 74 | 109 | 1.0 | 3.0 | 0.00 | 0.00 | 0.00 | 58 | 1006.4 |
| 20260506232401 | 74 | 98 | 1.0 | 3.0 | 0.00 | 0.00 | 0.00 | 58 | 1006.4 |
| 20260506232301 | 74 | 98 | 1.0 | 3.0 | 0.00 | 0.00 | 0.00 | 57 | 1006.4 |
| 20260506232201 | 74 | 80 | 1.0 | 3.0 | 0.00 | 0.00 | 0.00 | 57 | 1006.3 |
| 20260506232004 | 74 | 74 | 2.0 | 3.0 | 0.00 | 0.00 | 0.00 | 57 | 1006.4 |
| 20260506231901 | 74 | 71 | 1.0 | 3.0 | 0.00 | 0.00 | 0.00 | 57 | 1006.4 |
| 20260506231758 | 74 | 103 | 1.0 | 3.0 | 0.00 | 0.00 | 0.00 | 57 | 1006.4 |
| 20260506231700 | 74 | 68 | 1.0 | 3.0 | 0.00 | 0.00 | 0.00 | 57 | 1006.3 |
| 20260506231504 | 74 | 108 | 1.0 | 2.0 | 0.00 | 0.00 | 0.00 | 57 | 1006.4 |
| 20260506231201 | 74 | 80 | 1.0 | 2.0 | 0.00 | 0.00 | 0.00 | 57 | 1006.3 |
| 20260506231101 | 74 | 91 | 0.0 | 2.0 | 0.00 | 0.00 | 0.00 | 57 | 1006.3 |
| 20260506230900 | 74 | 82 | 0.0 | 2.0 | 0.00 | 0.00 | 0.00 | 57 | 1006.3 |
| 20260506230601 | 74 | 80 | 1.0 | 2.0 | 0.00 | 0.00 | 0.00 | 57 | 1006.4 |
| 20260506230503 | 74 | 74 | 0.0 | 2.0 | 0.00 | 0.00 | 0.00 | 58 | 1006.3 |
| 20260506230400 | 74 | 105 | 0.0 | 2.0 | 0.00 | 0.00 | 0.00 | 58 | 1006.4 |
| 20260506230201 | 74 | 51 | 0.0 | 2.0 | 0.00 | 0.00 | 0.00 | 57 | 1006.3 |
| 20260506230100 | 74 | 69 | 0.0 | 2.0 | 0.00 | 0.00 | 0.00 | 57 | 1006.3 |
| 20260506225800 | 74 | 40 | 0.0 | 1.0 | 0.00 | 0.00 | 0.00 | 58 | 1006.3 |
| 20260506225700 | 74 | 38 | 0.0 | 2.0 | 0.00 | 0.00 | 0.00 | 58 | 1006.3 |
| 20260506225602 | 74 | 38 | 0.0 | 2.0 | 0.00 | 0.00 | 0.00 | 57 | 1006.3 |
| 20260506225503 | 74 | 37 | 1.0 | 2.0 | 0.00 | 0.00 | 0.00 | 57 | 1006.3 |
| 20260506225401 | 74 | 40 | 0.0 | 2.0 | 0.00 | 0.00 | 0.00 | 57 | 1006.3 |
| 20260506225305 | 74 | 42 | 0.0 | 2.0 | 0.00 | 0.00 | 0.00 | 57 | 1006.3 |
| 20260506225201 | 74 | 46 | 0.0 | 2.0 | 0.00 | 0.00 | 0.00 | 58 | 1006.3 |
| 20260506225106 | 74 | 46 | 0.0 | 2.0 | 0.00 | 0.00 | 0.00 | 58 | 1006.3 |
| 20260506225006 | 74 | 32 | 0.0 | 2.0 | 0.00 | 0.00 | 0.00 | 57 | 1006.3 |
| 20260506224702 | 74 | 5 | 0.0 | 2.0 | 0.00 | 0.00 | 0.00 | 57 | 1006.2 |
| 20260506224503 | 74 | 5 | 0.0 | 2.0 | 0.00 | 0.00 | 0.00 | 57 | 1006.2 |
| 20260506224301 | 74 | 42 | 0.0 | 2.0 | 0.00 | 0.00 | 0.00 | 57 | 1006.2 |
| 20260506224203 | 74 | 46 | 0.0 | 2.0 | 0.00 | 0.00 | 0.00 | 57 | 1006.3 |
| 20260506224104 | 74 | 87 | 1.0 | 2.0 | 0.00 | 0.00 | 0.00 | 57 | 1006.2 |
| 20260506224004 | 74 | 32 | 1.0 | 2.0 | 0.00 | 0.00 | 0.00 | 57 | 1006.2 |
| 20260506223902 | 74 | 28 | 1.0 | 2.0 | 0.00 | 0.00 | 0.00 | 57 | 1006.2 |
| 20260506223801 | 74 | 47 | 1.0 | 2.0 | 0.00 | 0.00 | 0.00 | 57 | 1006.2 |
| 20260506223702 | 74 | 53 | 1.0 | 2.0 | 0.00 | 0.00 | 0.00 | 57 | 1006.2 |
| 20260506223504 | 74 | 34 | 1.0 | 2.0 | 0.00 | 0.00 | 0.00 | 57 | 1006.2 |
| 20260506223404 | 74 | 52 | 1.0 | 2.0 | 0.00 | 0.00 | 0.00 | 57 | 1006.2 |
| 20260506223301 | 74 | 44 | 1.0 | 2.0 | 0.00 | 0.00 | 0.00 | 57 | 1006.1 |
| 20260506223202 | 74 | 46 | 1.0 | 2.0 | 0.00 | 0.00 | 0.00 | 57 | 1006.0 |
| 20260506223103 | 74 | 34 | 1.0 | 2.0 | 0.00 | 0.00 | 0.00 | 57 | 1006.2 |
| 20260506223005 | 74 | 39 | 1.0 | 2.0 | 0.00 | 0.00 | 0.00 | 57 | 1006.1 |
| 20260506222901 | 74 | 40 | 1.0 | 2.0 | 0.00 | 0.00 | 0.00 | 57 | 1006.1 |
| 20260506222800 | 75 | 26 | 1.0 | 2.0 | 0.00 | 0.00 | 0.00 | 57 | 1006.0 |
| 20260506222702 | 74 | 46 | 0.0 | 2.0 | 0.00 | 0.00 | 0.00 | 57 | 1006.1 |
| 20260506222602 | 75 | 59 | 0.0 | 2.0 | 0.00 | 0.00 | 0.00 | 56 | 1006.0 |
| 20260506222503 | 75 | 49 | 0.0 | 2.0 | 0.00 | 0.00 | 0.00 | 56 | 1006.0 |
| 20260506222402 | 75 | 63 | 0.0 | 2.0 | 0.00 | 0.00 | 0.00 | 56 | 1006.1 |
| 20260506222305 | 75 | 26 | 0.0 | 2.0 | 0.00 | 0.00 | 0.00 | 56 | 1006.1 |
| 20260506222202 | 75 | 26 | 0.0 | 2.0 | 0.00 | 0.00 | 0.00 | 56 | 1006.1 |
| 20260506222103 | 75 | 26 | 0.0 | 3.0 | 0.00 | 0.00 | 0.00 | 56 | 1006.0 |
| 20260506222004 | 75 | 26 | 1.0 | 3.0 | 0.00 | 0.00 | 0.00 | 55 | 1006.0 |
| 20260506221801 | 75 | 25 | 0.0 | 3.0 | 0.00 | 0.00 | 0.00 | 55 | 1006.0 |
| 20260506221701 | 75 | 42 | 0.0 | 3.0 | 0.00 | 0.00 | 0.00 | 55 | 1005.9 |
| 20260506221601 | 75 | 69 | 0.0 | 3.0 | 0.00 | 0.00 | 0.00 | 55 | 1006.0 |
| 20260506221505 | 75 | 72 | 0.0 | 3.0 | 0.00 | 0.00 | 0.00 | 55 | 1005.9 |
| 20260506221402 | 75 | 46 | 1.0 | 3.0 | 0.00 | 0.00 | 0.00 | 54 | 1005.9 |
| 20260506221301 | 75 | 67 | 2.0 | 3.0 | 0.00 | 0.00 | 0.00 | 54 | 1005.9 |
| 20260506221209 | 75 | 63 | 2.0 | 3.0 | 0.00 | 0.00 | 0.00 | 54 | 1005.9 |
| 20260506221004 | 75 | 65 | 1.0 | 3.0 | 0.00 | 0.00 | 0.00 | 54 | 1005.8 |
| 20260506220802 | 75 | 66 | 0.0 | 3.0 | 0.00 | 0.00 | 0.00 | 54 | 1005.9 |
| 20260506220600 | 75 | 64 | 1.0 | 3.0 | 0.00 | 0.00 | 0.00 | 54 | 1005.8 |
| 20260506220503 | 75 | 67 | 1.0 | 3.0 | 0.00 | 0.00 | 0.00 | 54 | 1005.8 |
| 20260506220402 | 75 | 101 | 0.0 | 3.0 | 0.00 | 0.00 | 0.00 | 54 | 1005.8 |
| 20260506220302 | 75 | 101 | 1.0 | 3.0 | 0.00 | 0.00 | 0.00 | 54 | 1005.8 |
| 20260506220200 | 75 | 96 | 1.0 | 3.0 | 0.00 | 0.00 | 0.00 | 54 | 1005.7 |
| 20260506220101 | 75 | 121 | 0.0 | 3.0 | 0.00 | 0.00 | 0.00 | 54 | 1005.8 |
| 20260506220007 | 75 | 98 | 0.0 | 3.0 | 0.00 | 0.00 | 0.00 | 54 | 1005.8 |
| 20260506215801 | 75 | 72 | 1.0 | 3.0 | 0.00 | 0.00 | 0.00 | 54 | 1005.7 |
| 20260506215701 | 75 | 90 | 1.0 | 3.0 | 0.00 | 0.00 | 0.00 | 54 | 1005.7 |
| 20260506215601 | 75 | 53 | 0.0 | 3.0 | 0.00 | 0.00 | 0.00 | 54 | 1005.7 |
| 20260506215504 | 75 | 63 | 1.0 | 3.0 | 0.00 | 0.00 | 0.00 | 54 | 1005.7 |
| 20260506215305 | 75 | 355 | 0.0 | 3.0 | 0.00 | 0.00 | 0.00 | 54 | 1005.6 |
| 20260506215201 | 75 | 43 | 1.0 | 3.0 | 0.00 | 0.00 | 0.00 | 54 | 1005.7 |
| 20260506215101 | 75 | 61 | 1.0 | 3.0 | 0.00 | 0.00 | 0.00 | 54 | 1005.6 |
| 20260506214802 | 75 | 76 | 1.0 | 3.0 | 0.00 | 0.00 | 0.00 | 54 | 1005.5 |
| 20260506214601 | 75 | 64 | 0.0 | 3.0 | 0.00 | 0.00 | 0.00 | 54 | 1005.5 |
| 20260506214503 | 75 | 107 | 0.0 | 3.0 | 0.00 | 0.00 | 0.00 | 54 | 1005.5 |
| 20260506214301 | 75 | 59 | 1.0 | 3.0 | 0.00 | 0.00 | 0.00 | 54 | 1005.6 |
| 20260506214201 | 75 | 67 | 0.0 | 3.0 | 0.00 | 0.00 | 0.00 | 54 | 1005.5 |
| 20260506214101 | 75 | 84 | 0.0 | 3.0 | 0.00 | 0.00 | 0.00 | 54 | 1005.5 |
| 20260506214005 | 75 | 111 | 0.0 | 3.0 | 0.00 | 0.00 | 0.00 | 54 | 1005.5 |
| 20260506213901 | 75 | 82 | 1.0 | 3.0 | 0.00 | 0.00 | 0.00 | 54 | 1005.5 |
| 20260506213804 | 75 | 106 | 2.0 | 3.0 | 0.00 | 0.00 | 0.00 | 54 | 1005.5 |
| 20260506213601 | 75 | 61 | 1.0 | 3.0 | 0.00 | 0.00 | 0.00 | 54 | 1005.6 |
| 20260506213503 | 75 | 92 | 1.0 | 3.0 | 0.00 | 0.00 | 0.00 | 54 | 1005.5 |
| 20260506213400 | 75 | 92 | 1.0 | 4.0 | 0.00 | 0.00 | 0.00 | 54 | 1005.6 |
| 20260506213202 | 75 | 99 | 1.0 | 4.0 | 0.00 | 0.00 | 0.00 | 54 | 1005.5 |
| 20260506213102 | 75 | 69 | 1.0 | 4.0 | 0.00 | 0.00 | 0.00 | 54 | 1005.6 |
| 20260506213006 | 75 | 77 | 1.0 | 4.0 | 0.00 | 0.00 | 0.00 | 54 | 1005.5 |
| 20260506212901 | 75 | 89 | 1.0 | 4.0 | 0.00 | 0.00 | 0.00 | 54 | 1005.5 |
| 20260506212801 | 75 | 67 | 1.0 | 4.0 | 0.00 | 0.00 | 0.00 | 54 | 1005.5 |
| 20260506212704 | 75 | 118 | 2.0 | 4.0 | 0.00 | 0.00 | 0.00 | 54 | 1005.5 |
| 20260506212601 | 75 | 90 | 3.0 | 4.0 | 0.00 | 0.00 | 0.00 | 53 | 1005.4 |
| 20260506212503 | 75 | 104 | 2.0 | 4.0 | 0.00 | 0.00 | 0.00 | 53 | 1005.4 |
| 20260506212402 | 75 | 103 | 2.0 | 4.0 | 0.00 | 0.00 | 0.00 | 53 | 1005.4 |
| 20260506212305 | 75 | 127 | 2.0 | 4.0 | 0.00 | 0.00 | 0.00 | 53 | 1005.4 |
| 20260506212101 | 75 | 71 | 1.0 | 3.0 | 0.00 | 0.00 | 0.00 | 53 | 1005.5 |
| 20260506212004 | 75 | 77 | 1.0 | 3.0 | 0.00 | 0.00 | 0.00 | 53 | 1005.5 |
| 20260506211902 | 75 | 89 | 1.0 | 3.0 | 0.00 | 0.00 | 0.00 | 53 | 1005.4 |
| 20260506211801 | 75 | 74 | 1.0 | 3.0 | 0.00 | 0.00 | 0.00 | 53 | 1005.5 |
| 20260506211701 | 75 | 103 | 1.0 | 3.0 | 0.00 | 0.00 | 0.00 | 53 | 1005.5 |
| 20260506211503 | 75 | 98 | 1.0 | 4.0 | 0.00 | 0.00 | 0.00 | 53 | 1005.6 |
| 20260506211402 | 75 | 71 | 1.0 | 4.0 | 0.00 | 0.00 | 0.00 | 53 | 1005.5 |
| 20260506211100 | 75 | 98 | 1.0 | 4.0 | 0.00 | 0.00 | 0.00 | 53 | 1005.5 |
| 20260506211005 | 75 | 66 | 1.0 | 4.0 | 0.00 | 0.00 | 0.00 | 53 | 1005.5 |
| 20260506210902 | 75 | 93 | 1.0 | 4.0 | 0.00 | 0.00 | 0.00 | 53 | 1005.4 |
| 20260506210801 | 75 | 121 | 2.0 | 4.0 | 0.00 | 0.00 | 0.00 | 53 | 1005.6 |
| 20260506210703 | 75 | 77 | 2.0 | 4.0 | 0.00 | 0.00 | 0.00 | 53 | 1005.5 |
| 20260506210602 | 75 | 59 | 3.0 | 4.0 | 0.00 | 0.00 | 0.00 | 53 | 1005.5 |
| 20260506210507 | 75 | 88 | 2.0 | 4.0 | 0.00 | 0.00 | 0.00 | 53 | 1005.5 |
| 20260506210402 | 75 | 61 | 2.0 | 4.0 | 0.00 | 0.00 | 0.00 | 53 | 1005.5 |
| 20260506210302 | 75 | 69 | 2.0 | 4.0 | 0.00 | 0.00 | 0.00 | 53 | 1005.5 |
| 20260506210204 | 75 | 72 | 2.0 | 4.0 | 0.00 | 0.00 | 0.00 | 53 | 1005.5 |
| 20260506210006 | 75 | 49 | 1.0 | 4.0 | 0.00 | 0.00 | 0.00 | 52 | 1005.5 |
| 20260506205901 | 75 | 94 | 2.0 | 4.0 | 0.00 | 0.00 | 0.00 | 52 | 1005.5 |
| 20260506205659 | 76 | 94 | 1.0 | 4.0 | 0.00 | 0.00 | 0.00 | 52 | 1005.4 |
| 20260506205602 | 76 | 104 | 1.0 | 4.0 | 0.00 | 0.00 | 0.00 | 52 | 1005.4 |
| 20260506205501 | 76 | 109 | 1.0 | 4.0 | 0.00 | 0.00 | 0.00 | 52 | 1005.5 |
| 20260506205306 | 76 | 106 | 1.0 | 4.0 | 0.00 | 0.00 | 0.00 | 52 | 1005.4 |
| 20260506205200 | 76 | 86 | 1.0 | 4.0 | 0.00 | 0.00 | 0.00 | 52 | 1005.5 |
| 20260506205101 | 76 | 57 | 1.0 | 4.0 | 0.00 | 0.00 | 0.00 | 52 | 1005.4 |
| 20260506205004 | 76 | 80 | 1.0 | 4.0 | 0.00 | 0.00 | 0.00 | 52 | 1005.3 |
| 20260506204900 | 76 | 71 | 1.0 | 4.0 | 0.00 | 0.00 | 0.00 | 51 | 1005.3 |
| 20260506204802 | 76 | 90 | 0.0 | 4.0 | 0.00 | 0.00 | 0.00 | 51 | 1005.4 |
| 20260506204659 | 76 | 92 | 0.0 | 4.0 | 0.00 | 0.00 | 0.00 | 51 | 1005.3 |
| 20260506204600 | 76 | 101 | 0.0 | 4.0 | 0.00 | 0.00 | 0.00 | 51 | 1005.4 |
| 20260506204503 | 76 | 107 | 0.0 | 4.0 | 0.00 | 0.00 | 0.00 | 51 | 1005.4 |
| 20260506204300 | 76 | 360 | 1.0 | 4.0 | 0.00 | 0.00 | 0.00 | 51 | 1005.4 |
| 20260506204201 | 76 | 79 | 2.0 | 4.0 | 0.00 | 0.00 | 0.00 | 51 | 1005.3 |
| 20260506204102 | 76 | 65 | 2.0 | 4.0 | 0.00 | 0.00 | 0.00 | 51 | 1005.3 |
| 20260506203901 | 76 | 78 | 1.0 | 4.0 | 0.00 | 0.00 | 0.00 | 50 | 1005.3 |
| 20260506203802 | 76 | 83 | 1.0 | 6.0 | 0.00 | 0.00 | 0.00 | 50 | 1005.3 |
| 20260506203700 | 76 | 94 | 2.0 | 6.0 | 0.00 | 0.00 | 0.00 | 50 | 1005.4 |
| 20260506203603 | 76 | 123 | 2.0 | 6.0 | 0.00 | 0.00 | 0.00 | 50 | 1005.4 |
| 20260506203503 | 76 | 78 | 2.0 | 6.0 | 0.00 | 0.00 | 0.00 | 50 | 1005.4 |
| 20260506203401 | 76 | 106 | 2.0 | 6.0 | 0.00 | 0.00 | 0.00 | 50 | 1005.3 |
| 20260506203201 | 77 | 92 | 2.0 | 6.0 | 0.00 | 0.00 | 0.00 | 50 | 1005.3 |
| 20260506203101 | 77 | 65 | 3.0 | 6.0 | 0.00 | 0.00 | 0.00 | 50 | 1005.3 |
| 20260506202859 | 77 | 88 | 2.0 | 5.0 | 0.00 | 0.00 | 0.00 | 50 | 1005.4 |
| 20260506202802 | 77 | 117 | 1.0 | 4.0 | 0.00 | 0.00 | 0.00 | 49 | 1005.4 |
| 20260506202700 | 77 | 46 | 1.0 | 4.0 | 0.00 | 0.00 | 0.00 | 49 | 1005.3 |
| 20260506202600 | 77 | 73 | 1.0 | 7.0 | 0.00 | 0.00 | 0.00 | 49 | 1005.3 |
| 20260506202402 | 77 | 78 | 2.0 | 7.0 | 0.00 | 0.00 | 0.00 | 49 | 1005.3 |
| 20260506202300 | 77 | 69 | 2.0 | 7.0 | 0.00 | 0.00 | 0.00 | 49 | 1005.3 |
| 20260506202003 | 77 | 109 | 3.0 | 9.0 | 0.00 | 0.00 | 0.00 | 48 | 1005.3 |
| 20260506201900 | 77 | 96 | 3.0 | 9.0 | 0.00 | 0.00 | 0.00 | 48 | 1005.3 |
| 20260506201759 | 77 | 107 | 3.0 | 9.0 | 0.00 | 0.00 | 0.00 | 48 | 1005.4 |
| 20260506201702 | 77 | 105 | 154.0 | 655.0 | 0.09 | 1.16 | 0.00 | 49 | |
| 20260506201603 | 77 | 115 | 2.0 | 9.0 | 0.00 | 0.00 | 0.00 | 48 | 1005.3 |
| 20260506201503 | 77 | 69 | 2.0 | 9.0 | 0.00 | 0.00 | 0.00 | 48 | 1005.4 |
| 20260506201406 | 77 | 136 | 3.0 | 9.0 | 0.00 | 0.00 | 0.00 | 48 | 1005.4 |
| 20260506201302 | 77 | 28 | 5.0 | 9.0 | 0.00 | 0.00 | 0.00 | 48 | 1005.3 |
| 20260506201204 | 77 | 94 | 6.0 | 9.0 | 0.00 | 0.00 | 0.00 | 48 | 1005.3 |
| 20260506201101 | 77 | 106 | 5.0 | 9.0 | 0.00 | 0.00 | 0.00 | 48 | 1005.4 |
| 20260506201006 | 77 | 123 | 3.0 | 8.0 | 0.00 | 0.00 | 0.00 | 48 | 1005.5 |
| 20260506200800 | 77 | 101 | 3.0 | 8.0 | 0.00 | 0.00 | 0.00 | 48 | 1005.5 |
| 20260506200708 | 77 | 80 | 4.0 | 8.0 | 0.00 | 0.00 | 0.00 | 48 | 1005.5 |
| 20260506200503 | 77 | 98 | 4.0 | 8.0 | 0.00 | 0.00 | 0.00 | 48 | 1005.5 |
| 20260506200359 | 77 | 157 | 4.0 | 8.0 | 0.00 | 0.00 | 0.00 | 48 | 1005.5 |
| 20260506200201 | 77 | 122 | 5.0 | 9.0 | 0.00 | 0.00 | 0.00 | 48 | 1005.5 |
| 20260506200100 | 77 | 105 | 5.0 | 9.0 | 0.00 | 0.00 | 0.00 | 48 | 1005.5 |
| 20260506200007 | 77 | 119 | 4.0 | 9.0 | 0.00 | 0.00 | 0.00 | 48 | 1005.5 |
| 20260506195904 | 77 | 113 | 5.0 | 9.0 | 0.00 | 0.00 | 0.00 | 48 | 1005.5 |
| 20260506195803 | 77 | 105 | 4.0 | 9.0 | 0.00 | 0.00 | 0.00 | 48 | 1005.5 |
| 20260506195704 | 77 | 99 | 3.0 | 9.0 | 0.00 | 0.00 | 0.00 | 48 | 1005.5 |
| 20260506195604 | 78 | 98 | 4.0 | 9.0 | 0.00 | 0.00 | 0.00 | 48 | 1005.6 |
| 20260506195505 | 78 | 133 | 6.0 | 9.0 | 0.00 | 0.00 | 0.00 | 48 | 1005.6 |
| 20260506195404 | 78 | 128 | 4.0 | 9.0 | 0.00 | 0.00 | 0.00 | 48 | 1005.6 |
| 20260506195105 | 78 | 36 | 3.0 | 8.0 | 0.00 | 0.00 | 0.00 | 48 | 1005.7 |
| 20260506195005 | 78 | 95 | 4.0 | 10.0 | 0.00 | 0.00 | 0.00 | 48 | 1005.7 |
| 20260506194904 | 78 | 71 | 4.0 | 10.0 | 0.00 | 0.00 | 0.00 | 47 | 1005.7 |
| 20260506194803 | 78 | 125 | 2.0 | 10.0 | 0.00 | 0.00 | 0.00 | 48 | 1005.6 |
| 20260506194704 | 78 | 83 | 2.0 | 10.0 | 0.00 | 0.00 | 0.00 | 48 | 1005.6 |
| 20260506194602 | 78 | 125 | 3.0 | 10.0 | 0.00 | 0.00 | 0.00 | 47 | 1005.6 |
| 20260506194507 | 78 | 126 | 4.0 | 10.0 | 0.00 | 0.00 | 0.00 | 47 | 1005.6 |
| 20260506194405 | 78 | 122 | 4.0 | 12.0 | 0.00 | 0.00 | 0.00 | 47 | 1005.6 |
| 20260506194303 | 78 | 135 | 6.0 | 12.0 | 0.00 | 0.00 | 0.00 | 47 | 1005.7 |
| 20260506194201 | 78 | 133 | 7.0 | 12.0 | 0.00 | 0.00 | 0.00 | 47 | 1005.7 |
| 20260506194103 | 78 | 155 | 6.0 | 12.0 | 0.00 | 0.00 | 0.00 | 47 | 1005.6 |
| 20260506194010 | 78 | 119 | 6.0 | 12.0 | 0.00 | 0.00 | 0.00 | 47 | 1005.6 |
| 20260506193902 | 78 | 137 | 5.0 | 12.0 | 0.00 | 0.00 | 0.00 | 47 | 1005.7 |
| 20260506193805 | 78 | 150 | 5.0 | 12.0 | 0.00 | 0.00 | 0.00 | 47 | 1005.7 |
| 20260506193704 | 78 | 88 | 6.0 | 12.0 | 0.00 | 0.00 | 0.00 | 47 | 1005.7 |
| 20260506193604 | 78 | 94 | 6.0 | 12.0 | 0.00 | 0.00 | 0.00 | 47 | 1005.7 |
| 20260506193506 | 78 | 106 | 6.0 | 10.0 | 0.00 | 0.00 | 0.00 | 48 | 1005.8 |
| 20260506193302 | 78 | 132 | 4.0 | 10.0 | 0.00 | 0.00 | 0.00 | 48 | 1005.8 |
| 20260506193204 | 78 | 121 | 5.0 | 10.0 | 0.00 | 0.00 | 0.00 | 48 | 1005.8 |
| 20260506193103 | 78 | 136 | 4.0 | 10.0 | 0.00 | 0.00 | 0.00 | 48 | 1005.8 |
| 20260506193007 | 78 | 154 | 5.0 | 10.0 | 0.00 | 0.00 | 0.00 | 48 | 1005.8 |
| 20260506192804 | 78 | 123 | 5.0 | 10.0 | 0.00 | 0.00 | 0.00 | 48 | 1005.7 |
| 20260506192604 | 78 | 138 | 5.0 | 10.0 | 0.00 | 0.00 | 0.00 | 48 | 1005.8 |
| 20260506192509 | 78 | 115 | 5.0 | 10.0 | 0.00 | 0.00 | 0.00 | 48 | 1005.8 |
| 20260506192403 | 78 | 131 | 4.0 | 10.0 | 0.00 | 0.00 | 0.00 | 48 | 1005.8 |
| 20260506192305 | 78 | 133 | 6.0 | 10.0 | 0.00 | 0.00 | 0.00 | 47 | 1005.8 |
| 20260506192204 | 78 | 123 | 8.0 | 10.0 | 0.00 | 0.00 | 0.00 | 47 | 1005.8 |
| 20260506192007 | 78 | 137 | 5.0 | 10.0 | 0.00 | 0.00 | 0.00 | 48 | 1005.8 |
| 20260506191903 | 78 | 126 | 5.0 | 10.0 | 0.00 | 0.00 | 0.00 | 48 | 1005.8 |
| 20260506191804 | 78 | 105 | 6.0 | 10.0 | 0.00 | 0.00 | 0.00 | 48 | 1005.9 |
| 20260506191705 | 78 | 133 | 5.0 | 10.0 | 0.00 | 0.00 | 0.00 | 48 | 1005.9 |
| 20260506191604 | 78 | 158 | 4.0 | 10.0 | 0.00 | 0.00 | 0.00 | 48 | 1005.8 |
| 20260506191506 | 78 | 87 | 3.0 | 10.0 | 0.00 | 0.00 | 0.00 | 49 | 1005.9 |
| 20260506191405 | 78 | 115 | 2.0 | 6.0 | 0.00 | 0.00 | 0.00 | 49 | 1005.8 |
| 20260506191206 | 78 | 113 | 4.0 | 6.0 | 0.00 | 0.00 | 0.00 | 49 | 1005.8 |
| 20260506191103 | 78 | 131 | 3.0 | 6.0 | 0.00 | 0.00 | 0.00 | 49 | 1005.9 |
| 20260506191007 | 78 | 113 | 2.0 | 6.0 | 0.00 | 0.00 | 0.00 | 49 | 1005.9 |
| 20260506190903 | 78 | 103 | 3.0 | 6.0 | 0.00 | 0.00 | 0.00 | 49 | 1005.9 |
| 20260506190805 | 78 | 146 | 3.0 | 6.0 | 0.00 | 0.00 | 0.00 | 49 | 1005.9 |
| 20260506190704 | 78 | 110 | 3.0 | 6.0 | 0.00 | 0.00 | 0.00 | 49 | 1005.8 |
| 20260506190603 | 78 | 126 | 3.0 | 6.0 | 0.00 | 0.00 | 0.00 | 49 | 1005.9 |
| 20260506190505 | 78 | 115 | 3.0 | 6.0 | 0.00 | 0.00 | 0.00 | 49 | 1005.9 |
| 20260506190405 | 78 | 111 | 3.0 | 6.0 | 0.00 | 0.00 | 0.00 | 49 | 1006.0 |
| 20260506190305 | 78 | 153 | 3.0 | 6.0 | 0.00 | 0.00 | 0.00 | 49 | 1005.9 |
| 20260506190205 | 78 | 126 | 2.0 | 7.0 | 0.00 | 0.00 | 0.00 | 49 | 1005.9 |
| 20260506190007 | 78 | 129 | 3.0 | 7.0 | 0.00 | 0.00 | 0.00 | 49 | 1006.0 |
| 20260506185902 | 78 | 156 | 3.0 | 7.0 | 0.00 | 0.00 | 0.00 | 48 | 1006.0 |
| 20260506185802 | 78 | 141 | 3.0 | 9.0 | 0.00 | 0.00 | 0.00 | 49 | 1006.0 |
| 20260506185605 | 78 | 161 | 3.0 | 10.0 | 0.00 | 0.00 | 0.00 | 48 | 1006.0 |
| 20260506185507 | 78 | 117 | 3.0 | 10.0 | 0.00 | 0.00 | 0.00 | 49 | 1006.1 |
| 20260506185403 | 78 | 125 | 4.0 | 10.0 | 0.00 | 0.00 | 0.00 | 48 | 1006.0 |
| 20260506185306 | 78 | 133 | 3.0 | 10.0 | 0.00 | 0.00 | 0.00 | 49 | 1006.1 |
| 20260506185204 | 78 | 153 | 4.0 | 10.0 | 0.00 | 0.00 | 0.00 | 48 | 1006.0 |
| 20260506185104 | 78 | 123 | 5.0 | 10.0 | 0.00 | 0.00 | 0.00 | 48 | 1006.1 |
| 20260506184905 | 78 | 132 | 6.0 | 10.0 | 0.00 | 0.00 | 0.00 | 48 | 1006.1 |
| 20260506184803 | 79 | 140 | 6.0 | 10.0 | 0.00 | 0.00 | 0.00 | 48 | 1006.1 |
| 20260506184703 | 79 | 140 | 5.0 | 10.0 | 0.00 | 0.00 | 0.00 | 48 | 1006.1 |
| 20260506184602 | 79 | 133 | 3.0 | 8.0 | 0.00 | 0.00 | 0.00 | 48 | 1006.2 |
| 20260506184506 | 79 | 165 | 2.0 | 8.0 | 0.00 | 0.00 | 0.00 | 48 | 1006.1 |
| 20260506184401 | 79 | 133 | 1.0 | 8.0 | 0.00 | 0.00 | 0.00 | 49 | 1006.1 |
| 20260506184303 | 79 | 142 | 1.0 | 8.0 | 0.00 | 0.00 | 0.00 | 48 | 1006.0 |
| 20260506184203 | 79 | 160 | 3.0 | 8.0 | 0.00 | 0.00 | 0.00 | 48 | 1006.2 |
| 20260506184006 | 79 | 135 | 4.0 | 12.0 | 0.00 | 0.00 | 0.00 | 48 | 1006.2 |
| 20260506183902 | 79 | 98 | 6.0 | 12.0 | 0.00 | 0.00 | 0.00 | 48 | 1006.2 |
| 20260506183806 | 79 | 181 | 5.0 | 12.0 | 0.00 | 0.00 | 0.00 | 48 | 1006.1 |
| 20260506183603 | 79 | 169 | 3.0 | 12.0 | 0.00 | 0.00 | 0.00 | 48 | 1006.1 |
| 20260506183505 | 79 | 147 | 4.0 | 12.0 | 0.00 | 0.00 | 0.00 | 48 | 1006.1 |
| 20260506183402 | 79 | 159 | 6.0 | 12.0 | 0.00 | 0.00 | 0.00 | 48 | 1006.1 |
| 20260506183306 | 79 | 156 | 6.0 | 12.0 | 0.00 | 0.00 | 0.00 | 48 | 1006.1 |
| 20260506183203 | 79 | 150 | 6.0 | 12.0 | 0.00 | 0.00 | 0.00 | 48 | 1006.1 |
| 20260506183103 | 79 | 102 | 8.0 | 15.0 | 0.00 | 0.00 | 0.00 | 48 | 1006.1 |
| 20260506183007 | 79 | 104 | 7.0 | 16.0 | 0.00 | 0.00 | 0.00 | 48 | 1006.1 |
| 20260506182903 | 79 | 138 | 5.0 | 16.0 | 0.00 | 0.00 | 0.00 | 48 | 1006.1 |
| 20260506182804 | 79 | 131 | 5.0 | 16.0 | 0.00 | 0.00 | 0.00 | 48 | 1006.0 |
| 20260506182702 | 79 | 92 | 7.0 | 16.0 | 0.00 | 0.00 | 0.00 | 48 | 1006.1 |
| 20260506182603 | 79 | 158 | 8.0 | 16.0 | 0.00 | 0.00 | 0.00 | 48 | 1006.1 |
| 20260506182504 | 79 | 105 | 8.0 | 16.0 | 0.00 | 0.00 | 0.00 | 48 | 1006.1 |
| 20260506182403 | 79 | 121 | 10.0 | 16.0 | 0.00 | 0.00 | 0.00 | 48 | 1006.0 |
| 20260506182306 | 79 | 157 | 11.0 | 16.0 | 0.00 | 0.00 | 0.00 | 48 | 1006.1 |
| 20260506182202 | 79 | 150 | 8.0 | 14.0 | 0.00 | 0.00 | 0.00 | 48 | 1006.1 |
| 20260506182102 | 79 | 127 | 8.0 | 14.0 | 0.00 | 0.00 | 0.00 | 48 | 1006.1 |
| 20260506182006 | 79 | 101 | 10.0 | 14.0 | 0.00 | 0.00 | 0.00 | 48 | 1006.0 |
| 20260506181904 | 79 | 105 | 9.0 | 14.0 | 0.00 | 0.00 | 0.00 | 48 | 1006.1 |
| 20260506181803 | 79 | 144 | 7.0 | 12.0 | 0.00 | 0.00 | 0.00 | 48 | 1006.1 |
| 20260506181704 | 79 | 143 | 7.0 | 13.0 | 0.00 | 0.00 | 0.00 | 48 | 1006.1 |
| 20260506181602 | 79 | 171 | 6.0 | 13.0 | 0.00 | 0.00 | 0.00 | 48 | 1006.2 |
| 20260506181505 | 79 | 130 | 6.0 | 13.0 | 0.00 | 0.00 | 0.00 | 48 | 1006.1 |
| 20260506181407 | 79 | 157 | 6.0 | 13.0 | 0.00 | 0.00 | 0.00 | 48 | 1006.2 |
| 20260506181302 | 79 | 124 | 6.0 | 13.0 | 0.00 | 0.00 | 0.00 | 48 | 1006.1 |
| 20260506181203 | 79 | 111 | 5.0 | 13.0 | 0.00 | 0.00 | 0.00 | 48 | 1006.2 |
| 20260506181103 | 79 | 113 | 6.0 | 15.0 | 0.00 | 0.00 | 0.00 | 48 | 1006.1 |
| 20260506181006 | 79 | 142 | 9.0 | 15.0 | 0.00 | 0.00 | 0.00 | 48 | 1006.1 |
| 20260506180905 | 79 | 117 | 8.0 | 15.0 | 0.00 | 0.00 | 0.00 | 48 | 1006.1 |
| 20260506180804 | 79 | 94 | 7.0 | 15.0 | 0.00 | 0.00 | 0.00 | 48 | 1006.2 |
| 20260506180703 | 79 | 119 | 8.0 | 15.0 | 0.00 | 0.00 | 0.00 | 48 | 1006.1 |
| 20260506180603 | 79 | 144 | 8.0 | 15.0 | 0.00 | 0.00 | 0.00 | 48 | 1006.1 |
| 20260506180505 | 79 | 133 | 8.0 | 15.0 | 0.00 | 0.00 | 0.00 | 48 | 1006.1 |
| 20260506180402 | 79 | 157 | 9.0 | 15.0 | 0.00 | 0.00 | 0.00 | 48 | 1006.2 |
| 20260506180303 | 79 | 115 | 9.0 | 15.0 | 0.00 | 0.00 | 0.00 | 48 | 1006.1 |
| 20260506180104 | 79 | 84 | 8.0 | 15.0 | 0.00 | 0.00 | 0.00 | 49 | 1006.1 |
| 20260506180006 | 79 | 171 | 8.0 | 15.0 | 0.00 | 0.00 | 0.00 | 49 | 1006.2 |
| 20260506175803 | 80 | 121 | 7.0 | 12.0 | 0.00 | 0.00 | 0.00 | 49 | 1006.1 |
| 20260506175703 | 80 | 167 | 6.0 | 13.0 | 0.00 | 0.00 | 0.00 | 49 | 1006.1 |
| 20260506175603 | 80 | 154 | 5.0 | 13.0 | 0.00 | 0.00 | 0.00 | 49 | 1006.1 |
| 20260506175403 | 80 | 131 | 8.0 | 13.0 | 0.00 | 0.00 | 0.00 | 49 | 1006.2 |
| 20260506175203 | 80 | 145 | 8.0 | 13.0 | 0.00 | 0.00 | 0.00 | 49 | 1006.1 |
| 20260506174903 | 80 | 125 | 8.0 | 13.0 | 0.00 | 0.00 | 0.00 | 50 | 1006.1 |
| 20260506174803 | 80 | 102 | 7.0 | 11.0 | 0.00 | 0.00 | 0.00 | 50 | 1006.2 |
| 20260506174702 | 80 | 141 | 7.0 | 11.0 | 0.00 | 0.00 | 0.00 | 50 | 1006.2 |
| 20260506174603 | 80 | 114 | 6.0 | 11.0 | 0.00 | 0.00 | 0.00 | 51 | 1006.2 |
| 20260506174504 | 80 | 113 | 5.0 | 11.0 | 0.00 | 0.00 | 0.00 | 51 | 1006.2 |
| 20260506174406 | 80 | 136 | 7.0 | 11.0 | 0.00 | 0.00 | 0.00 | 50 | 1006.1 |
| 20260506174308 | 80 | 98 | 6.0 | 11.0 | 0.00 | 0.00 | 0.00 | 50 | 1006.2 |
| 20260506174203 | 80 | 138 | 4.0 | 11.0 | 0.00 | 0.00 | 0.00 | 50 | 1006.3 |
| 20260506174103 | 80 | 136 | 4.0 | 11.0 | 0.00 | 0.00 | 0.00 | 50 | 1006.1 |
| 20260506173903 | 80 | 128 | 8.0 | 13.0 | 0.00 | 0.00 | 0.00 | 50 | 1006.2 |
| 20260506173806 | 80 | 96 | 7.0 | 13.0 | 0.00 | 0.00 | 0.00 | 50 | 1006.2 |
| 20260506173703 | 80 | 133 | 5.0 | 13.0 | 0.00 | 0.00 | 0.00 | 50 | 1006.2 |
| 20260506173604 | 81 | 148 | 5.0 | 14.0 | 0.00 | 0.00 | 0.00 | 50 | 1006.2 |
| 20260506173506 | 81 | 129 | 7.0 | 14.0 | 0.00 | 0.00 | 0.00 | 50 | 1006.3 |
| 20260506173404 | 81 | 96 | 6.0 | 14.0 | 0.00 | 0.00 | 0.00 | 50 | 1006.2 |
| 20260506173304 | 81 | 99 | 6.0 | 14.0 | 0.00 | 0.00 | 0.00 | 50 | 1006.2 |
| 20260506173203 | 81 | 109 | 8.0 | 14.0 | 0.00 | 0.00 | 0.00 | 50 | 1006.2 |
| 20260506173103 | 81 | 128 | 9.0 | 14.0 | 0.00 | 0.00 | 0.00 | 50 | 1006.2 |
| 20260506173008 | 81 | 129 | 9.0 | 14.0 | 0.00 | 0.00 | 0.00 | 50 | 1006.1 |
| 20260506172903 | 81 | 107 | 10.0 | 14.0 | 0.00 | 0.00 | 0.00 | 50 | 1006.1 |
| 20260506172803 | 81 | 130 | 9.0 | 14.0 | 0.00 | 0.00 | 0.00 | 50 | 1006.2 |
| 20260506172604 | 81 | 128 | 5.0 | 13.0 | 0.00 | 0.00 | 0.00 | 50 | 1006.1 |
| 20260506172505 | 81 | 108 | 6.0 | 13.0 | 0.00 | 0.00 | 0.00 | 50 | 1006.2 |
| 20260506172402 | 81 | 132 | 7.0 | 13.0 | 0.00 | 0.00 | 0.00 | 50 | 1006.2 |
| 20260506172306 | 81 | 149 | 7.0 | 13.0 | 0.00 | 0.00 | 0.00 | 50 | 1006.2 |
| 20260506172204 | 81 | 134 | 7.0 | 13.0 | 0.00 | 0.00 | 0.00 | 50 | 1006.2 |
| 20260506172103 | 81 | 133 | 9.0 | 13.0 | 0.00 | 0.00 | 0.00 | 50 | 1006.2 |
| 20260506172007 | 81 | 136 | 9.0 | 14.0 | 0.00 | 0.00 | 0.00 | 50 | 1006.1 |
| 20260506171904 | 81 | 138 | 7.0 | 13.0 | 0.00 | 0.00 | 0.00 | 49 | 1006.1 |
| 20260506171806 | 81 | 128 | 5.0 | 14.0 | 0.00 | 0.00 | 0.00 | 49 | 1006.1 |
| 20260506171702 | 81 | 111 | 6.0 | 14.0 | 0.00 | 0.00 | 0.00 | 49 | 1006.1 |
| 20260506171604 | 81 | 151 | 7.0 | 14.0 | 0.00 | 0.00 | 0.00 | 49 | 1006.1 |
| 20260506171505 | 81 | 132 | 9.0 | 14.0 | 0.00 | 0.00 | 0.00 | 49 | 1006.2 |
| 20260506171407 | 81 | 125 | 9.0 | 14.0 | 0.00 | 0.00 | 0.00 | 49 | 1006.2 |
| 20260506171203 | 81 | 107 | 9.0 | 14.0 | 0.00 | 0.00 | 0.00 | 49 | 1006.2 |
| 20260506171103 | 81 | 123 | 10.0 | 14.0 | 0.00 | 0.00 | 0.00 | 49 | 1006.3 |
| 20260506171007 | 81 | 126 | 9.0 | 14.0 | 0.00 | 0.00 | 0.00 | 49 | 1006.3 |
| 20260506170904 | 81 | 112 | 8.0 | 13.0 | 0.00 | 0.00 | 0.00 | 50 | 1006.3 |
| 20260506170802 | 81 | 140 | 7.0 | 12.0 | 0.00 | 0.00 | 0.00 | 50 | 1006.3 |
| 20260506170604 | 82 | 136 | 5.0 | 12.0 | 0.00 | 0.00 | 0.00 | 50 | 1006.3 |
| 20260506170505 | 82 | 142 | 6.0 | 12.0 | 0.00 | 0.00 | 0.00 | 50 | 1006.3 |
| 20260506170403 | 82 | 113 | 7.0 | 12.0 | 0.00 | 0.00 | 0.00 | 50 | 1006.3 |
| 20260506170303 | 82 | 132 | 8.0 | 12.0 | 0.00 | 0.00 | 0.00 | 50 | 1006.3 |
| 20260506170201 | 82 | 155 | 9.0 | 12.0 | 0.00 | 0.00 | 0.00 | 50 | 1006.4 |
| 20260506170104 | 82 | 123 | 8.0 | 12.0 | 0.00 | 0.00 | 0.00 | 50 | 1006.3 |
| 20260506170009 | 82 | 148 | 7.0 | 12.0 | 0.00 | 0.00 | 0.00 | 50 | 1006.3 |
| 20260506165903 | 82 | 88 | 6.0 | 12.0 | 0.00 | 0.00 | 0.00 | 50 | 1006.3 |
| 20260506165803 | 82 | 139 | 6.0 | 14.0 | 0.00 | 0.00 | 0.00 | 50 | 1006.3 |
| 20260506165704 | 82 | 81 | 7.0 | 14.0 | 0.00 | 0.00 | 0.00 | 50 | 1006.4 |
| 20260506165605 | 82 | 138 | 7.0 | 14.0 | 0.00 | 0.00 | 0.00 | 50 | 1006.4 |
| 20260506165506 | 82 | 159 | 7.0 | 14.0 | 0.00 | 0.00 | 0.00 | 50 | 1006.4 |
| 20260506165403 | 82 | 105 | 8.0 | 14.0 | 0.00 | 0.00 | 0.00 | 50 | 1006.3 |
| 20260506165305 | 83 | 113 | 8.0 | 14.0 | 0.00 | 0.00 | 0.00 | 50 | 1006.4 |
| 20260506165203 | 83 | 89 | 8.0 | 14.0 | 0.00 | 0.00 | 0.00 | 50 | 1006.4 |
| 20260506165103 | 83 | 98 | 9.0 | 14.0 | 0.00 | 0.00 | 0.00 | 50 | 1006.3 |
| 20260506164901 | 83 | 98 | 8.0 | 13.0 | 0.00 | 0.00 | 0.00 | 50 | 1006.3 |
| 20260506164804 | 84 | 95 | 7.0 | 11.0 | 0.00 | 0.00 | 0.00 | 50 | 1006.3 |
| 20260506164703 | 84 | 126 | 8.0 | 11.0 | 0.00 | 0.00 | 0.00 | 50 | 1006.3 |
| 20260506164605 | 84 | 129 | 8.0 | 11.0 | 0.00 | 0.00 | 0.00 | 50 | 1006.3 |
| 20260506164503 | 84 | 116 | 5.0 | 9.0 | 0.00 | 0.00 | 0.00 | 51 | 1006.2 |
| 20260506164302 | 84 | 38 | 2.0 | 4.0 | 0.00 | 0.00 | 0.00 | 50 | 1006.1 |
| 20260506164203 | 84 | 108 | 1.0 | 3.0 | 0.00 | 0.00 | 0.00 | 50 | 1006.0 |
| 20260506164103 | 84 | 136 | 0.0 | 2.0 | 0.00 | 0.00 | 0.00 | 50 | 1006.1 |
| 20260506164008 | 84 | 213 | 0.0 | 0.0 | 0.00 | 0.00 | 0.00 | 50 | 1006.1 |
| 20260506163903 | 84 | 213 | 0.0 | 1.0 | 0.00 | 0.00 | 0.00 | 50 | 1006.0 |
| 20260506163804 | 84 | 213 | 0.0 | 1.0 | 0.00 | 0.00 | 0.00 | 50 | 1006.0 |
| 20260506163602 | 84 | 213 | 0.0 | 1.0 | 0.00 | 0.00 | 0.00 | 50 | 1006.0 |
| 20260506163505 | 84 | 213 | 0.0 | 1.0 | 0.00 | 0.00 | 0.00 | 50 | 1006.0 |
| 20260506163404 | 84 | 213 | 0.0 | 1.0 | 0.00 | 0.00 | 0.00 | 50 | 1006.0 |
| 20260506163302 | 84 | 213 | 0.0 | 1.0 | 0.00 | 0.00 | 0.00 | 50 | 1006.0 |
| 20260506163203 | 84 | 213 | 0.0 | 1.0 | 0.00 | 0.00 | 0.00 | 50 | 1006.0 |
| 20260506163006 | 84 | 213 | 0.0 | 1.0 | 0.00 | 0.00 | 0.00 | 50 | 1006.0 |
| 20260506162902 | 84 | 213 | 0.0 | 1.0 | 0.00 | 0.00 | 0.00 | 51 | 1005.9 |
| 20260506162806 | 84 | 213 | 0.0 | 1.0 | 0.00 | 0.00 | 0.00 | 51 | 1006.0 |
| 20260506162703 | 84 | 213 | 0.0 | 1.0 | 0.00 | 0.00 | 0.00 | 50 | 1006.0 |
| 20260506162602 | 84 | 213 | 0.0 | 1.0 | 0.00 | 0.00 | 0.00 | 50 | 1006.0 |
| 20260506162505 | 84 | 213 | 0.0 | 1.0 | 0.00 | 0.00 | 0.00 | 50 | 1006.0 |
| 20260506162306 | 84 | 213 | 0.0 | 1.0 | 0.00 | 0.00 | 0.00 | 50 | 1006.0 |
| 20260506162204 | 84 | 213 | 1.0 | 1.0 | 0.00 | 0.00 | 0.00 | 50 | 1006.1 |
| 20260506162103 | 84 | 213 | 0.0 | 1.0 | 0.00 | 0.00 | 0.00 | 50 | 1006.0 |
| 20260506161903 | 84 | 213 | 0.0 | 1.0 | 0.00 | 0.00 | 0.00 | 50 | 1006.0 |
| 20260506161804 | 84 | 213 | 0.0 | 1.0 | 0.00 | 0.00 | 0.00 | 50 | 1006.0 |
| 20260506161704 | 84 | 213 | 0.0 | 1.0 | 0.00 | 0.00 | 0.00 | 50 | 1006.0 |
| 20260506161505 | 84 | 213 | 0.0 | 1.0 | 0.00 | 0.00 | 0.00 | 50 | 1006.0 |
| 20260506161200 | 84 | 213 | 0.0 | 2.0 | 0.00 | 0.00 | 0.00 | 50 | 1006.0 |
| 20260506161103 | 84 | 213 | 0.0 | 2.0 | 0.00 | 0.00 | 0.00 | 50 | 1005.9 |
| 20260506161007 | 84 | 213 | 0.0 | 2.0 | 0.00 | 0.00 | 0.00 | 50 | 1006.0 |
| 20260506160903 | 84 | 213 | 1.0 | 2.0 | 0.00 | 0.00 | 0.00 | 50 | 1006.0 |
| 20260506160805 | 84 | 213 | 1.0 | 2.0 | 0.00 | 0.00 | 0.00 | 50 | 1006.0 |
| 20260506160704 | 84 | 214 | 1.0 | 2.0 | 0.00 | 0.00 | 0.00 | 50 | 1006.0 |
| 20260506160603 | 84 | 214 | 0.0 | 2.0 | 0.00 | 0.00 | 0.00 | 50 | 1006.0 |
| 20260506160504 | 84 | 214 | 0.0 | 2.0 | 0.00 | 0.00 | 0.00 | 50 | 1006.0 |
| 20260506160402 | 84 | 214 | 0.0 | 2.0 | 0.00 | 0.00 | 0.00 | 50 | 1006.0 |
| 20260506160304 | 84 | 214 | 0.0 | 2.0 | 0.00 | 0.00 | 0.00 | 50 | 1005.9 |
| 20260506160103 | 84 | 217 | 1.0 | 2.0 | 0.00 | 0.00 | 0.00 | 50 | 1006.0 |
| 20260506155904 | 84 | 221 | 0.0 | 2.0 | 0.00 | 0.00 | 0.00 | 50 | 1006.0 |
| 20260506155703 | 85 | 222 | 0.0 | 2.0 | 0.00 | 0.00 | 0.00 | 50 | 1005.9 |
| 20260506155600 | 85 | 222 | 0.0 | 3.0 | 0.00 | 0.00 | 0.00 | 50 | 1005.9 |
| 20260506155505 | 85 | 229 | 0.0 | 3.0 | 0.00 | 0.00 | 0.00 | 50 | 1006.0 |
| 20260506155403 | 85 | 221 | 0.0 | 3.0 | 0.00 | 0.00 | 0.00 | 50 | 1006.0 |
| 20260506155306 | 85 | 221 | 0.0 | 3.0 | 0.00 | 0.00 | 0.00 | 50 | 1005.9 |
| 20260506155203 | 85 | 221 | 1.0 | 3.0 | 0.00 | 0.00 | 0.00 | 49 | 1006.0 |
| 20260506155103 | 85 | 221 | 1.0 | 3.0 | 0.00 | 0.00 | 0.00 | 50 | 1006.0 |
| 20260506155009 | 85 | 221 | 1.0 | 3.0 | 0.00 | 0.00 | 0.00 | 50 | 1005.9 |
| 20260506154902 | 85 | 214 | 2.0 | 3.0 | 0.00 | 0.00 | 0.00 | 50 | 1005.9 |
| 20260506154804 | 85 | 211 | 1.0 | 3.0 | 0.00 | 0.00 | 0.00 | 50 | 1005.9 |
| 20260506154702 | 85 | 217 | 1.0 | 3.0 | 0.00 | 0.00 | 0.00 | 50 | 1006.0 |
| 20260506154607 | 85 | 212 | 1.0 | 3.0 | 0.00 | 0.00 | 0.00 | 50 | 1006.0 |
| 20260506154508 | 85 | 203 | 0.0 | 2.0 | 0.00 | 0.00 | 0.00 | 50 | 1005.9 |
| 20260506154402 | 85 | 203 | 0.0 | 1.0 | 0.00 | 0.00 | 0.00 | 50 | 1006.0 |
| 20260506154302 | 85 | 203 | 0.0 | 1.0 | 0.00 | 0.00 | 0.00 | 50 | 1005.9 |
| 20260506154203 | 85 | 203 | 1.0 | 1.0 | 0.00 | 0.00 | 0.00 | 50 | 1005.9 |
| 20260506154104 | 85 | 203 | 1.0 | 1.0 | 0.00 | 0.00 | 0.00 | 49 | 1005.9 |
| 20260506153903 | 85 | 203 | 0.0 | 1.0 | 0.00 | 0.00 | 0.00 | 49 | 1005.9 |
| 20260506153803 | 85 | 203 | 0.0 | 1.0 | 0.00 | 0.00 | 0.00 | 49 | 1005.9 |
| 20260506153703 | 85 | 203 | 0.0 | 0.0 | 0.00 | 0.00 | 0.00 | 49 | 1005.9 |
| 20260506153505 | 85 | 203 | 0.0 | 0.0 | 0.00 | 0.00 | 0.00 | 49 | 1005.9 |
| 20260506153404 | 85 | 203 | 0.0 | 0.0 | 0.00 | 0.00 | 0.00 | 49 | 1005.9 |
| 20260506153302 | 85 | 203 | 0.0 | 0.0 | 0.00 | 0.00 | 0.00 | 49 | 1005.8 |
| 20260506153203 | 85 | 203 | 0.0 | 0.0 | 0.00 | 0.00 | 0.00 | 49 | 1005.9 |
| 20260506153103 | 85 | 203 | 0.0 | 0.0 | 0.00 | 0.00 | 0.00 | 49 | 1005.9 |
| 20260506153006 | 85 | 203 | 0.0 | 0.0 | 0.00 | 0.00 | 0.00 | 49 | 1005.9 |
| 20260506152903 | 85 | 203 | 0.0 | 0.0 | 0.00 | 0.00 | 0.00 | 49 | 1005.9 |
| 20260506152803 | 85 | 203 | 0.0 | 0.0 | 0.00 | 0.00 | 0.00 | 49 | 1005.9 |
| 20260506152704 | 85 | 203 | 0.0 | 0.0 | 0.00 | 0.00 | 0.00 | 49 | 1005.8 |
| 20260506152602 | 85 | 203 | 0.0 | 0.0 | 0.00 | 0.00 | 0.00 | 49 | 1005.8 |
| 20260506152505 | 85 | 203 | 0.0 | 0.0 | 0.00 | 0.00 | 0.00 | 49 | 1005.8 |
| 20260506152405 | 85 | 203 | 0.0 | 0.0 | 0.00 | 0.00 | 0.00 | 49 | 1005.8 |
| 20260506152305 | 85 | 203 | 0.0 | 1.0 | 0.00 | 0.00 | 0.00 | 49 | 1005.8 |
| 20260506152201 | 85 | 203 | 0.0 | 1.0 | 0.00 | 0.00 | 0.00 | 49 | 1005.8 |
| 20260506152105 | 85 | 203 | 0.0 | 1.0 | 0.00 | 0.00 | 0.00 | 48 | 1005.8 |
| 20260506152006 | 85 | 203 | 0.0 | 1.0 | 0.00 | 0.00 | 0.00 | 48 | 1005.8 |
| 20260506151902 | 85 | 203 | 0.0 | 1.0 | 0.00 | 0.00 | 0.00 | 48 | 1005.8 |
| 20260506151703 | 86 | 203 | 0.0 | 1.0 | 0.00 | 0.00 | 0.00 | 48 | 1005.8 |
| 20260506151601 | 86 | 203 | 0.0 | 1.0 | 0.00 | 0.00 | 0.00 | 48 | 1005.7 |
| 20260506151505 | 86 | 203 | 0.0 | 1.0 | 0.00 | 0.00 | 0.00 | 48 | 1005.7 |
| 20260506151304 | 86 | 203 | 0.0 | 1.0 | 0.00 | 0.00 | 0.00 | 49 | 1005.8 |
| 20260506151204 | 86 | 203 | 0.0 | 1.0 | 0.00 | 0.00 | 0.00 | 49 | 1005.6 |
| 20260506151006 | 86 | 203 | 0.0 | 1.0 | 0.00 | 0.00 | 0.00 | 48 | 1005.7 |
| 20260506150903 | 86 | 203 | 0.0 | 1.0 | 0.00 | 0.00 | 0.00 | 48 | 1005.7 |
| 20260506150802 | 86 | 203 | 0.0 | 1.0 | 0.00 | 0.00 | 0.00 | 48 | 1005.7 |
| 20260506150603 | 86 | 203 | 0.0 | 1.0 | 0.00 | 0.00 | 0.00 | 48 | 1005.7 |
| 20260506150506 | 86 | 203 | 0.0 | 1.0 | 0.00 | 0.00 | 0.00 | 48 | 1005.7 |
| 20260506150402 | 86 | 203 | 0.0 | 1.0 | 0.00 | 0.00 | 0.00 | 48 | 1005.7 |
| 20260506150305 | 86 | 203 | 0.0 | 1.0 | 0.00 | 0.00 | 0.00 | 48 | 1005.7 |
| 20260506150203 | 86 | 203 | 0.0 | 1.0 | 0.00 | 0.00 | 0.00 | 48 | 1005.6 |
| 20260506150008 | 86 | 203 | 0.0 | 1.0 | 0.00 | 0.00 | 0.00 | 48 | 1005.6 |
| 20260506145802 | 86 | 203 | 0.0 | 1.0 | 0.00 | 0.00 | 0.00 | 48 | 1005.7 |
| 20260506145603 | 86 | 203 | 0.0 | 1.0 | 0.00 | 0.00 | 0.00 | 48 | 1005.6 |
| 20260506145503 | 86 | 203 | 0.0 | 1.0 | 0.00 | 0.00 | 0.00 | 48 | 1005.6 |
| 20260506145404 | 86 | 203 | 0.0 | 2.0 | 0.00 | 0.00 | 0.00 | 48 | 1005.6 |
| 20260506145305 | 86 | 203 | 0.0 | 2.0 | 0.00 | 0.00 | 0.00 | 47 | 1005.6 |
| 20260506145204 | 86 | 203 | 0.0 | 2.0 | 0.00 | 0.00 | 0.00 | 47 | 1005.7 |
| 20260506145103 | 86 | 203 | 0.0 | 2.0 | 0.00 | 0.00 | 0.00 | 47 | 1005.7 |
| 20260506145007 | 86 | 203 | 0.0 | 2.0 | 0.00 | 0.00 | 0.00 | 47 | 1005.5 |
| 20260506144903 | 86 | 203 | 1.0 | 2.0 | 0.00 | 0.00 | 0.00 | 47 | 1005.6 |
| 20260506144803 | 86 | 203 | 0.0 | 2.0 | 0.00 | 0.00 | 0.00 | 47 | 1005.6 |
| 20260506144703 | 86 | 203 | 1.0 | 2.0 | 0.00 | 0.00 | 0.00 | 47 | 1005.6 |
| 20260506144603 | 86 | 203 | 2.0 | 2.0 | 0.00 | 0.00 | 0.00 | 47 | 1005.6 |
| 20260506144504 | 86 | 203 | 2.0 | 2.0 | 0.00 | 0.00 | 0.00 | 47 | 1005.6 |
| 20260506144404 | 86 | 203 | 1.0 | 2.0 | 0.00 | 0.00 | 0.00 | 47 | 1005.6 |
| 20260506144204 | 86 | 210 | 1.0 | 2.0 | 0.00 | 0.00 | 0.00 | 47 | 1005.7 |
| 20260506144102 | 86 | 210 | 1.0 | 2.0 | 0.00 | 0.00 | 0.00 | 47 | 1005.6 |
| 20260506144005 | 86 | 207 | 1.0 | 2.0 | 0.00 | 0.00 | 0.00 | 47 | 1005.6 |
| 20260506143906 | 86 | 209 | 1.0 | 2.0 | 0.00 | 0.00 | 0.00 | 47 | 1005.6 |
| 20260506143703 | 87 | 216 | 0.0 | 0.0 | 0.00 | 0.00 | 0.00 | 47 | 1005.6 |
| 20260506143603 | 87 | 216 | 0.0 | 1.0 | 0.00 | 0.00 | 0.00 | 47 | 1005.7 |
| 20260506143505 | 87 | 200 | 0.0 | 1.0 | 0.00 | 0.00 | 0.00 | 47 | 1005.7 |
| 20260506143402 | 87 | 221 | 0.0 | 2.0 | 0.00 | 0.00 | 0.00 | 46 | 1005.7 |
| 20260506143204 | 87 | 242 | 0.0 | 2.0 | 0.00 | 0.00 | 0.00 | 46 | 1005.7 |
| 20260506143104 | 87 | 242 | 0.0 | 2.0 | 0.00 | 0.00 | 0.00 | 46 | 1005.7 |
| 20260506143006 | 87 | 246 | 0.0 | 2.0 | 0.00 | 0.00 | 0.00 | 46 | 1005.7 |
| 20260506142904 | 87 | 246 | 0.0 | 2.0 | 0.00 | 0.00 | 0.00 | 46 | 1005.6 |
| 20260506142803 | 87 | 250 | 1.0 | 2.0 | 0.00 | 0.00 | 0.00 | 46 | 1005.6 |
| 20260506142705 | 87 | 244 | 1.0 | 2.0 | 0.00 | 0.00 | 0.00 | 46 | 1005.6 |
| 20260506142603 | 87 | 227 | 1.0 | 2.0 | 0.00 | 0.00 | 0.00 | 46 | 1005.6 |
| 20260506142504 | 87 | 234 | 1.0 | 2.0 | 0.00 | 0.00 | 0.00 | 46 | 1005.7 |
| 20260506142403 | 87 | 251 | 1.0 | 2.0 | 0.00 | 0.00 | 0.00 | 46 | 1005.6 |
| 20260506142305 | 87 | 260 | 1.0 | 2.0 | 0.00 | 0.00 | 0.00 | 46 | 1005.6 |
| 20260506142203 | 87 | 261 | 1.0 | 2.0 | 0.00 | 0.00 | 0.00 | 46 | 1005.7 |
| 20260506142103 | 87 | 264 | 1.0 | 2.0 | 0.00 | 0.00 | 0.00 | 46 | 1005.7 |
| 20260506142006 | 87 | 263 | 1.0 | 2.0 | 0.00 | 0.00 | 0.00 | 46 | 1005.6 |
| 20260506141905 | 87 | 236 | 1.0 | 2.0 | 0.00 | 0.00 | 0.00 | 46 | 1005.7 |
| 20260506141803 | 87 | 236 | 0.0 | 2.0 | 0.00 | 0.00 | 0.00 | 46 | 1005.6 |
| 20260506141705 | 87 | 236 | 1.0 | 2.0 | 0.00 | 0.00 | 0.00 | 46 | 1005.6 |
| 20260506141602 | 87 | 247 | 1.0 | 2.0 | 0.00 | 0.00 | 0.00 | 46 | 1005.6 |
| 20260506141503 | 87 | 232 | 1.0 | 2.0 | 0.00 | 0.00 | 0.00 | 46 | 1005.6 |
| 20260506141403 | 87 | 230 | 0.0 | 2.0 | 0.00 | 0.00 | 0.00 | 46 | 1005.6 |
| 20260506141302 | 87 | 229 | 0.0 | 2.0 | 0.00 | 0.00 | 0.00 | 46 | 1005.6 |
| 20260506141204 | 87 | 231 | 1.0 | 2.0 | 0.00 | 0.00 | 0.00 | 46 | 1005.6 |
| 20260506140902 | 87 | 231 | 1.0 | 2.0 | 0.00 | 0.00 | 0.00 | 46 | 1005.6 |
| 20260506140804 | 87 | 232 | 1.0 | 2.0 | 0.00 | 0.00 | 0.00 | 46 | 1005.6 |
| 20260506140603 | 87 | 249 | 0.0 | 2.0 | 0.00 | 0.00 | 0.00 | 46 | 1005.5 |
| 20260506140505 | 87 | 234 | 0.0 | 2.0 | 0.00 | 0.00 | 0.00 | 46 | 1005.6 |
| 20260506140404 | 87 | 228 | 0.0 | 2.0 | 0.00 | 0.00 | 0.00 | 45 | 1005.6 |
| 20260506140303 | 87 | 228 | 0.0 | 2.0 | 0.00 | 0.00 | 0.00 | 45 | 1005.5 |
| 20260506140204 | 87 | 228 | 0.0 | 2.0 | 0.00 | 0.00 | 0.00 | 45 | 1005.5 |
| 20260506140105 | 87 | 228 | 0.0 | 2.0 | 0.00 | 0.00 | 0.00 | 45 | 1005.5 |
| 20260506140009 | 87 | 228 | 0.0 | 2.0 | 0.00 | 0.00 | 0.00 | 45 | 1005.5 |
| 20260506135705 | 87 | 248 | 1.0 | 3.0 | 0.00 | 0.00 | 0.00 | 45 | 1005.4 |
| 20260506135602 | 87 | 232 | 1.0 | 3.0 | 0.00 | 0.00 | 0.00 | 45 | 1005.4 |
| 20260506135402 | 87 | 227 | 1.0 | 3.0 | 0.00 | 0.00 | 0.00 | 45 | 1005.4 |
| 20260506135306 | 87 | 264 | 1.0 | 3.0 | 0.00 | 0.00 | 0.00 | 45 | 1005.4 |
| 20260506135203 | 87 | 251 | 1.0 | 3.0 | 0.00 | 0.00 | 0.00 | 45 | 1005.4 |
| 20260506135103 | 87 | 242 | 1.0 | 3.0 | 0.00 | 0.00 | 0.00 | 45 | 1005.4 |
| 20260506135005 | 88 | 247 | 1.0 | 3.0 | 0.00 | 0.00 | 0.00 | 45 | 1005.3 |
| 20260506134906 | 88 | 252 | 1.0 | 4.0 | 0.00 | 0.00 | 0.00 | 45 | 1005.3 |
| 20260506134806 | 88 | 227 | 0.0 | 4.0 | 0.00 | 0.00 | 0.00 | 45 | 1005.4 |
| 20260506134604 | 88 | 242 | 1.0 | 4.0 | 0.00 | 0.00 | 0.00 | 45 | 1005.3 |
| 20260506134505 | 88 | 246 | 1.0 | 4.0 | 0.00 | 0.00 | 0.00 | 45 | 1005.3 |
| 20260506134103 | 88 | 243 | 2.0 | 4.0 | 0.00 | 0.00 | 0.00 | 45 | 1005.3 |
| 20260506133902 | 88 | 242 | 2.0 | 3.0 | 0.00 | 0.00 | 0.00 | 45 | 1005.3 |
| 20260506133703 | 88 | 260 | 2.0 | 3.0 | 0.00 | 0.00 | 0.00 | 45 | 1005.3 |
| 20260506133604 | 88 | 249 | 2.0 | 4.0 | 0.00 | 0.00 | 0.00 | 45 | 1005.2 |
| 20260506133506 | 88 | 249 | 2.0 | 4.0 | 0.00 | 0.00 | 0.00 | 44 | 1005.3 |
| 20260506133403 | 88 | 270 | 1.0 | 4.0 | 0.00 | 0.00 | 0.00 | 44 | 1005.3 |
| 20260506133304 | 88 | 250 | 1.0 | 4.0 | 0.00 | 0.00 | 0.00 | 44 | 1005.3 |
| 20260506133202 | 88 | 259 | 1.0 | 4.0 | 0.00 | 0.00 | 0.00 | 44 | 1005.3 |
| 20260506133103 | 88 | 256 | 1.0 | 4.0 | 0.00 | 0.00 | 0.00 | 44 | 1005.3 |
| 20260506133005 | 88 | 256 | 2.0 | 4.0 | 0.00 | 0.00 | 0.00 | 44 | 1005.2 |
| 20260506132902 | 88 | 255 | 2.0 | 4.0 | 0.00 | 0.00 | 0.00 | 44 | 1005.2 |
| 20260506132803 | 88 | 252 | 2.0 | 4.0 | 0.00 | 0.00 | 0.00 | 44 | 1005.2 |
| 20260506132703 | 88 | 263 | 2.0 | 4.0 | 0.00 | 0.00 | 0.00 | 44 | 1005.3 |
| 20260506132603 | 89 | 261 | 3.0 | 4.0 | 0.00 | 0.00 | 0.00 | 44 | 1005.2 |
| 20260506132403 | 89 | 246 | 2.0 | 4.0 | 0.00 | 0.00 | 0.00 | 44 | 1005.2 |
| 20260506132305 | 89 | 296 | 2.0 | 4.0 | 0.00 | 0.00 | 0.00 | 44 | 1005.3 |
| 20260506132203 | 89 | 329 | 2.0 | 6.0 | 0.00 | 0.00 | 0.00 | 43 | 1005.2 |
| 20260506132103 | 89 | 253 | 2.0 | 6.0 | 0.00 | 0.00 | 0.00 | 43 | 1005.3 |
| 20260506132006 | 89 | 252 | 2.0 | 6.0 | 0.00 | 0.00 | 0.00 | 43 | 1005.2 |
| 20260506131802 | 89 | 269 | 2.0 | 6.0 | 0.00 | 0.00 | 0.00 | 43 | 1005.2 |
| 20260506131604 | 89 | 300 | 2.0 | 6.0 | 0.00 | 0.00 | 0.00 | 43 | 1005.2 |
| 20260506131404 | 89 | 291 | 2.0 | 6.0 | 0.00 | 0.00 | 0.00 | 42 | 1005.2 |
| 20260506131303 | 89 | 272 | 2.0 | 4.0 | 0.00 | 0.00 | 0.00 | 42 | 1005.2 |
| 20260506131202 | 89 | 250 | 2.0 | 4.0 | 0.00 | 0.00 | 0.00 | 42 | 1005.2 |
| 20260506131005 | 89 | 282 | 2.0 | 3.0 | 0.00 | 0.00 | 0.00 | 42 | 1005.1 |
| 20260506130903 | 89 | 254 | 2.0 | 3.0 | 0.00 | 0.00 | 0.00 | 41 | 1005.1 |
| 20260506130803 | 89 | 274 | 2.0 | 3.0 | 0.00 | 0.00 | 0.00 | 41 | 1005.2 |
| 20260506130703 | 90 | 239 | 2.0 | 3.0 | 0.00 | 0.00 | 0.00 | 42 | 1005.1 |
| 20260506130404 | 90 | 268 | 1.0 | 3.0 | 0.00 | 0.00 | 0.00 | 41 | 1005.1 |
| 20260506130303 | 90 | 270 | 1.0 | 3.0 | 0.00 | 0.00 | 0.00 | 42 | 1005.1 |
| 20260506130203 | 90 | 254 | 1.0 | 4.0 | 0.00 | 0.00 | 0.00 | 41 | 1005.2 |
| 20260506130007 | 90 | 278 | 1.0 | 5.0 | 0.00 | 0.00 | 0.00 | 41 | 1005.1 |
| 20260506125902 | 90 | 266 | 1.0 | 5.0 | 0.00 | 0.00 | 0.00 | 41 | 1005.1 |
| 20260506125802 | 90 | 246 | 1.0 | 5.0 | 0.00 | 0.00 | 0.00 | 41 | 1005.0 |
| 20260506125702 | 90 | 259 | 2.0 | 5.0 | 0.00 | 0.00 | 0.00 | 41 | 1005.1 |
| 20260506125602 | 90 | 281 | 2.0 | 5.0 | 0.00 | 0.00 | 0.00 | 40 | 1005.1 |
| 20260506125503 | 90 | 281 | 2.0 | 5.0 | 0.00 | 0.00 | 0.00 | 40 | 1005.0 |
| 20260506125401 | 90 | 294 | 2.0 | 5.0 | 0.00 | 0.00 | 0.00 | 40 | 1005.1 |
| 20260506125305 | 90 | 270 | 1.0 | 5.0 | 0.00 | 0.00 | 0.00 | 40 | 1005.0 |
| 20260506125202 | 90 | 256 | 2.0 | 4.0 | 0.00 | 0.00 | 0.00 | 41 | 1005.0 |
| 20260506124902 | 90 | 278 | 2.0 | 6.0 | 0.00 | 0.00 | 0.00 | 41 | 1005.0 |
| 20260506124801 | 90 | 273 | 1.0 | 6.0 | 0.00 | 0.00 | 0.00 | 41 | 1005.0 |
| 20260506124401 | 90 | 245 | 2.0 | 8.0 | 0.00 | 0.00 | 0.00 | 40 | 1005.1 |
| 20260506124301 | 90 | 267 | 3.0 | 9.0 | 0.00 | 0.00 | 0.00 | 41 | 1005.1 |
| 20260506124205 | 90 | 251 | 3.0 | 9.0 | 0.00 | 0.00 | 0.00 | 41 | 1005.0 |
| 20260506124103 | 90 | 267 | 3.0 | 9.0 | 0.00 | 0.00 | 0.00 | 41 | 1005.1 |
| 20260506124005 | 90 | 306 | 3.0 | 9.0 | 0.00 | 0.00 | 0.00 | 40 | 1005.1 |
| 20260506123905 | 90 | 286 | 3.0 | 9.0 | 0.00 | 0.00 | 0.00 | 40 | 1005.1 |
| 20260506123703 | 90 | 323 | 5.0 | 10.0 | 0.00 | 0.00 | 0.00 | 39 | 1005.1 |
| 20260506123602 | 90 | 309 | 5.0 | 10.0 | 0.00 | 0.00 | 0.00 | 39 | 1005.1 |
| 20260506123405 | 90 | 315 | 6.0 | 10.0 | 0.00 | 0.00 | 0.00 | 39 | 1005.1 |
| 20260506123301 | 90 | 274 | 5.0 | 10.0 | 0.00 | 0.00 | 0.00 | 39 | 1005.2 |
| 20260506123202 | 90 | 259 | 5.0 | 10.0 | 0.00 | 0.00 | 0.00 | 39 | 1005.2 |
| 20260506123104 | 90 | 249 | 6.0 | 10.0 | 0.00 | 0.00 | 0.00 | 39 | 1005.1 |
| 20260506123005 | 90 | 282 | 7.0 | 10.0 | 0.00 | 0.00 | 0.00 | 39 | 1005.2 |
| 20260506122903 | 90 | 265 | 6.0 | 10.0 | 0.00 | 0.00 | 0.00 | 39 | 1005.2 |
| 20260506122802 | 90 | 275 | 5.0 | 9.0 | 0.00 | 0.00 | 0.00 | 39 | 1005.2 |
| 20260506122703 | 90 | 271 | 6.0 | 9.0 | 0.00 | 0.00 | 0.00 | 40 | 1005.1 |
| 20260506122602 | 90 | 259 | 5.0 | 9.0 | 0.00 | 0.00 | 0.00 | 39 | 1005.2 |
| 20260506122504 | 90 | 265 | 3.0 | 8.0 | 0.00 | 0.00 | 0.00 | 40 | 1005.1 |
| 20260506122301 | 90 | 265 | 2.0 | 8.0 | 0.00 | 0.00 | 0.00 | 40 | 1005.1 |
| 20260506122202 | 90 | 215 | 3.0 | 8.0 | 0.00 | 0.00 | 0.00 | 40 | 1005.1 |
| 20260506122102 | 90 | 255 | 5.0 | 8.0 | 0.00 | 0.00 | 0.00 | 39 | 1005.2 |
| 20260506122007 | 91 | 260 | 6.0 | 8.0 | 0.00 | 0.00 | 0.00 | 39 | 1005.1 |
| 20260506121901 | 91 | 261 | 5.0 | 8.0 | 0.00 | 0.00 | 0.00 | 39 | 1005.2 |
| 20260506121702 | 91 | 248 | 3.0 | 8.0 | 0.00 | 0.00 | 0.00 | 40 | 1005.2 |
| 20260506121601 | 91 | 263 | 4.0 | 8.0 | 0.00 | 0.00 | 0.00 | 40 | 1005.2 |
| 20260506121504 | 91 | 257 | 4.0 | 8.0 | 0.00 | 0.00 | 0.00 | 39 | 1005.1 |
| 20260506121401 | 91 | 268 | 3.0 | 10.0 | 0.00 | 0.00 | 0.00 | 39 | 1005.2 |
| 20260506121301 | 91 | 285 | 3.0 | 10.0 | 0.00 | 0.00 | 0.00 | 39 | 1005.1 |
| 20260506121202 | 91 | 260 | 3.0 | 10.0 | 0.00 | 0.00 | 0.00 | 39 | 1005.1 |
| 20260506120902 | 91 | 236 | 4.0 | 10.0 | 0.00 | 0.00 | 0.00 | 39 | 1005.2 |
| 20260506120802 | 91 | 244 | 5.0 | 10.0 | 0.00 | 0.00 | 0.00 | 39 | 1005.2 |
| 20260506120701 | 91 | 272 | 6.0 | 10.0 | 0.00 | 0.00 | 0.00 | 39 | 1005.2 |
| 20260506120602 | 91 | 229 | 5.0 | 10.0 | 0.00 | 0.00 | 0.00 | 39 | 1005.2 |
| 20260506120504 | 91 | 232 | 3.0 | 7.0 | 0.00 | 0.00 | 0.00 | 40 | 1005.2 |
| 20260506120401 | 91 | 269 | 4.0 | 7.0 | 0.00 | 0.00 | 0.00 | 39 | 1005.2 |
| 20260506120302 | 91 | 254 | 3.0 | 7.0 | 0.00 | 0.00 | 0.00 | 39 | 1005.2 |
| 20260506120006 | 91 | 206 | 3.0 | 6.0 | 0.00 | 0.00 | 0.00 | 39 | 1005.2 |
| 20260506115903 | 91 | 250 | 3.0 | 8.0 | 0.00 | 0.00 | 0.00 | 40 | 1005.3 |
| 20260506115802 | 91 | 252 | 3.0 | 9.0 | 0.00 | 0.00 | 0.00 | 39 | 1005.2 |
| 20260506115603 | 91 | 235 | 3.0 | 11.0 | 0.00 | 0.00 | 0.00 | 38 | 1005.2 |
| 20260506115504 | 91 | 261 | 4.0 | 11.0 | 0.00 | 0.00 | 0.00 | 38 | 1005.3 |
| 20260506115401 | 91 | 221 | 3.0 | 11.0 | 0.00 | 0.00 | 0.00 | 39 | 1005.3 |
| 20260506115306 | 91 | 255 | 1.0 | 11.0 | 0.00 | 0.00 | 0.00 | 40 | 1005.2 |
| 20260506115202 | 91 | 220 | 2.0 | 11.0 | 0.00 | 0.00 | 0.00 | 39 | 1005.3 |
| 20260506115103 | 91 | 281 | 6.0 | 11.0 | 0.00 | 0.00 | 0.00 | 39 | 1005.2 |
| 20260506114902 | 91 | 276 | 6.0 | 11.0 | 0.00 | 0.00 | 0.00 | 40 | 1005.3 |
| 20260506114802 | 91 | 301 | 5.0 | 11.0 | 0.00 | 0.00 | 0.00 | 40 | 1005.2 |
| 20260506114601 | 91 | 296 | 5.0 | 9.0 | 0.00 | 0.00 | 0.00 | 39 | 1005.3 |
| 20260506114505 | 91 | 250 | 5.0 | 9.0 | 0.00 | 0.00 | 0.00 | 39 | 1005.3 |
| 20260506114404 | 91 | 278 | 5.0 | 8.0 | 0.00 | 0.00 | 0.00 | 39 | 1005.2 |
| 20260506114303 | 91 | 255 | 5.0 | 8.0 | 0.00 | 0.00 | 0.00 | 39 | 1005.3 |
| 20260506113901 | 91 | 257 | 3.0 | 7.0 | 0.00 | 0.00 | 0.00 | 38 | 1005.3 |
| 20260506113803 | 91 | 298 | 3.0 | 10.0 | 0.00 | 0.00 | 0.00 | 38 | 1005.2 |
| 20260506113603 | 91 | 257 | 3.0 | 10.0 | 0.00 | 0.00 | 0.00 | 39 | 1005.3 |
| 20260506113504 | 91 | 271 | 4.0 | 10.0 | 0.00 | 0.00 | 0.00 | 39 | 1005.3 |
| 20260506113404 | 91 | 274 | 4.0 | 10.0 | 0.00 | 0.00 | 0.00 | 37 | 1005.3 |
| 20260506113301 | 91 | 269 | 4.0 | 10.0 | 0.00 | 0.00 | 0.00 | 37 | 1005.3 |
| 20260506113204 | 91 | 275 | 5.0 | 10.0 | 0.00 | 0.00 | 0.00 | 37 | 1005.3 |
| 20260506113008 | 91 | 258 | 6.0 | 10.0 | 0.00 | 0.00 | 0.00 | 37 | 1005.3 |
| 20260506112903 | 91 | 263 | 3.0 | 8.0 | 0.00 | 0.00 | 0.00 | 38 | 1005.3 |
| 20260506112802 | 91 | 268 | 3.0 | 8.0 | 0.00 | 0.00 | 0.00 | 37 | 1005.4 |
| 20260506112703 | 91 | 264 | 4.0 | 10.0 | 0.00 | 0.00 | 0.00 | 36 | 1005.5 |
| 20260506112603 | 91 | 284 | 4.0 | 10.0 | 0.00 | 0.00 | 0.00 | 36 | 1005.4 |
| 20260506112504 | 91 | 293 | 3.0 | 10.0 | 0.00 | 0.00 | 0.00 | 36 | 1005.5 |
| 20260506112404 | 91 | 281 | 3.0 | 10.0 | 0.00 | 0.00 | 0.00 | 36 | 1005.4 |
| 20260506112306 | 91 | 315 | 3.0 | 11.0 | 0.00 | 0.00 | 0.00 | 37 | 1005.4 |
| 20260506112202 | 91 | 333 | 4.0 | 11.0 | 0.00 | 0.00 | 0.00 | 37 | 1005.5 |
| 20260506112103 | 91 | 302 | 4.0 | 11.0 | 0.00 | 0.00 | 0.00 | 37 | 1005.5 |
| 20260506112005 | 91 | 286 | 4.0 | 11.0 | 0.00 | 0.00 | 0.00 | 37 | 1005.5 |
| 20260506111903 | 91 | 281 | 5.0 | 11.0 | 0.00 | 0.00 | 0.00 | 37 | 1005.5 |
| 20260506111702 | 91 | 288 | 6.0 | 11.0 | 0.00 | 0.00 | 0.00 | 38 | 1005.6 |
| 20260506111603 | 91 | 319 | 8.0 | 11.0 | 0.00 | 0.00 | 0.00 | 38 | 1005.5 |
| 20260506111510 | 91 | 273 | 7.0 | 11.0 | 0.00 | 0.00 | 0.00 | 39 | 1005.5 |
| 20260506111405 | 91 | 260 | 6.0 | 10.0 | 0.00 | 0.00 | 0.00 | 39 | 1005.5 |
| 20260506111303 | 91 | 290 | 5.0 | 10.0 | 0.00 | 0.00 | 0.00 | 38 | 1005.5 |
| 20260506111201 | 91 | 289 | 6.0 | 11.0 | 0.00 | 0.00 | 0.00 | 38 | 1005.6 |
| 20260506111101 | 91 | 302 | 7.0 | 11.0 | 0.00 | 0.00 | 0.00 | 39 | 1005.5 |
| 20260506110902 | 91 | 239 | 7.0 | 11.0 | 0.00 | 0.00 | 0.00 | 39 | 1005.6 |
| 20260506110704 | 91 | 306 | 5.0 | 11.0 | 0.00 | 0.00 | 0.00 | 39 | 1005.5 |
| 20260506110603 | 91 | 265 | 4.0 | 11.0 | 0.00 | 0.00 | 0.00 | 38 | 1005.6 |
| 20260506110403 | 91 | 268 | 6.0 | 11.0 | 0.00 | 0.00 | 0.00 | 39 | 1005.6 |
| 20260506110202 | 91 | 240 | 3.0 | 10.0 | 0.00 | 0.00 | 0.00 | 38 | 1005.6 |
| 20260506110009 | 91 | 254 | 5.0 | 10.0 | 0.00 | 0.00 | 0.00 | 38 | 1005.6 |
| 20260506105903 | 92 | 246 | 5.0 | 10.0 | 0.00 | 0.00 | 0.00 | 38 | 1005.7 |
| 20260506105802 | 92 | 239 | 5.0 | 10.0 | 0.00 | 0.00 | 0.00 | 38 | 1005.7 |
| 20260506105705 | 92 | 238 | 7.0 | 10.0 | 0.00 | 0.00 | 0.00 | 38 | 1005.8 |
| 20260506105605 | 92 | 231 | 5.0 | 10.0 | 0.00 | 0.00 | 0.00 | 38 | 1005.8 |
| 20260506105504 | 92 | 219 | 3.0 | 9.0 | 0.00 | 0.00 | 0.00 | 38 | 1005.8 |
| 20260506105402 | 91 | 252 | 2.0 | 9.0 | 0.00 | 0.00 | 0.00 | 38 | 1005.8 |
| 20260506105305 | 91 | 235 | 2.0 | 9.0 | 0.00 | 0.00 | 0.00 | 37 | 1005.8 |
| 20260506105204 | 91 | 218 | 1.0 | 9.0 | 0.00 | 0.00 | 0.00 | 37 | 1005.8 |
| 20260506105102 | 91 | 173 | 3.0 | 11.0 | 0.00 | 0.00 | 0.00 | 37 | 1005.9 |
| 20260506105009 | 91 | 184 | 3.0 | 11.0 | 0.00 | 0.00 | 0.00 | 37 | 1005.9 |
| 20260506104805 | 91 | 304 | 4.0 | 12.0 | 0.00 | 0.00 | 0.00 | 38 | 1005.9 |
| 20260506104707 | 91 | 252 | 4.0 | 12.0 | 0.00 | 0.00 | 0.00 | 38 | 1005.9 |
| 20260506104604 | 91 | 308 | 4.0 | 12.0 | 0.00 | 0.00 | 0.00 | 39 | 1005.9 |
| 20260506104504 | 91 | 332 | 4.0 | 12.0 | 0.00 | 0.00 | 0.00 | 38 | 1005.9 |
| 20260506104402 | 91 | 265 | 6.0 | 12.0 | 0.00 | 0.00 | 0.00 | 38 | 1005.9 |
| 20260506104304 | 91 | 246 | 6.0 | 12.0 | 0.00 | 0.00 | 0.00 | 39 | 1005.9 |
| 20260506104204 | 91 | 280 | 7.0 | 14.0 | 0.00 | 0.00 | 0.00 | 39 | 1006.0 |
| 20260506104106 | 91 | 285 | 8.0 | 15.0 | 0.00 | 0.00 | 0.00 | 38 | 1005.9 |
| 20260506104008 | 91 | 284 | 7.0 | 15.0 | 0.00 | 0.00 | 0.00 | 37 | 1005.9 |
| 20260506103902 | 91 | 269 | 6.0 | 15.0 | 0.00 | 0.00 | 0.00 | 38 | 1005.9 |
| 20260506103804 | 91 | 246 | 5.0 | 15.0 | 0.00 | 0.00 | 0.00 | 38 | 1006.0 |
| 20260506103702 | 91 | 235 | 5.0 | 15.0 | 0.00 | 0.00 | 0.00 | 38 | 1005.9 |
| 20260506103604 | 91 | 250 | 7.0 | 15.0 | 0.00 | 0.00 | 0.00 | 37 | 1006.0 |
| 20260506103505 | 91 | 279 | 10.0 | 15.0 | 0.00 | 0.00 | 0.00 | 37 | 1006.0 |
| 20260506103304 | 91 | 287 | 7.0 | 12.0 | 0.00 | 0.00 | 0.00 | 38 | 1006.0 |
| 20260506103202 | 91 | 277 | 7.0 | 11.0 | 0.00 | 0.00 | 0.00 | 37 | 1006.0 |
| 20260506103101 | 91 | 266 | 7.0 | 11.0 | 0.00 | 0.00 | 0.00 | 36 | 1006.1 |
| 20260506103006 | 92 | 297 | 7.0 | 11.0 | 0.00 | 0.00 | 0.00 | 38 | 1006.0 |
| 20260506102905 | 92 | 297 | 6.0 | 10.0 | 0.00 | 0.00 | 0.00 | 37 | 1006.0 |
| 20260506102804 | 92 | 279 | 4.0 | 9.0 | 0.00 | 0.00 | 0.00 | 36 | 1005.9 |
| 20260506102703 | 92 | 257 | 5.0 | 9.0 | 0.00 | 0.00 | 0.00 | 36 | 1006.0 |
| 20260506102605 | 92 | 311 | 6.0 | 10.0 | 0.00 | 0.00 | 0.00 | 36 | 1006.0 |
| 20260506102505 | 92 | 286 | 5.0 | 10.0 | 0.00 | 0.00 | 0.00 | 37 | 1006.0 |
| 20260506102404 | 92 | 309 | 3.0 | 10.0 | 0.00 | 0.00 | 0.00 | 36 | 1006.0 |
| 20260506102305 | 91 | 310 | 4.0 | 10.0 | 0.00 | 0.00 | 0.00 | 36 | 1006.1 |
| 20260506102203 | 91 | 300 | 5.0 | 12.0 | 0.00 | 0.00 | 0.00 | 35 | 1006.0 |
| 20260506102105 | 91 | 288 | 5.0 | 12.0 | 0.00 | 0.00 | 0.00 | 36 | 1006.0 |
| 20260506102006 | 91 | 285 | 5.0 | 12.0 | 0.00 | 0.00 | 0.00 | 36 | 1006.1 |
| 20260506101904 | 91 | 311 | 6.0 | 12.0 | 0.00 | 0.00 | 0.00 | 36 | 1006.1 |
| 20260506101804 | 91 | 295 | 8.0 | 12.0 | 0.00 | 0.00 | 0.00 | 36 | 1006.0 |
| 20260506101703 | 91 | 313 | 8.0 | 12.0 | 0.00 | 0.00 | 0.00 | 36 | 1006.1 |
| 20260506101505 | 91 | 306 | 7.0 | 12.0 | 0.00 | 0.00 | 0.00 | 37 | 1006.0 |
| 20260506101402 | 91 | 355 | 7.0 | 12.0 | 0.00 | 0.00 | 0.00 | 37 | 1006.1 |
| 20260506101304 | 91 | 296 | 5.0 | 12.0 | 0.00 | 0.00 | 0.00 | 38 | 1006.0 |
| 20260506101105 | 91 | 310 | 7.0 | 12.0 | 0.00 | 0.00 | 0.00 | 36 | 1006.1 |
| 20260506101005 | 91 | 296 | 7.0 | 12.0 | 0.00 | 0.00 | 0.00 | 37 | 1006.0 |
| 20260506100905 | 91 | 296 | 8.0 | 12.0 | 0.00 | 0.00 | 0.00 | 37 | 1006.0 |
| 20260506100804 | 91 | 296 | 7.0 | 12.0 | 0.00 | 0.00 | 0.00 | 37 | 1006.1 |
| 20260506100703 | 91 | 296 | 6.0 | 12.0 | 0.00 | 0.00 | 0.00 | 37 | 1006.1 |
| 20260506100506 | 91 | 315 | 6.0 | 12.0 | 0.00 | 0.00 | 0.00 | 38 | 1006.1 |
| 20260506100303 | 91 | 309 | 6.0 | 15.0 | 0.00 | 0.00 | 0.00 | 36 | 1006.2 |
| 20260506100203 | 91 | 319 | 6.0 | 15.0 | 0.00 | 0.00 | 0.00 | 36 | 1006.2 |
| 20260506100103 | 91 | 309 | 4.0 | 15.0 | 0.00 | 0.00 | 0.00 | 37 | 1006.2 |
| 20260506100009 | 91 | 275 | 7.0 | 15.0 | 0.00 | 0.00 | 0.00 | 36 | 1006.2 |
| 20260506095805 | 91 | 282 | 8.0 | 15.0 | 0.00 | 0.00 | 0.00 | 37 | 1006.2 |
| 20260506095703 | 91 | 302 | 8.0 | 15.0 | 0.00 | 0.00 | 0.00 | 37 | 1006.1 |
| 20260506095506 | 91 | 305 | 8.0 | 15.0 | 0.00 | 0.00 | 0.00 | 37 | 1006.2 |
| 20260506095404 | 91 | 300 | 8.0 | 14.0 | 0.00 | 0.00 | 0.00 | 38 | 1006.2 |
| 20260506095205 | 91 | 298 | 8.0 | 14.0 | 0.00 | 0.00 | 0.00 | 38 | 1006.2 |
| 20260506095103 | 91 | 313 | 9.0 | 14.0 | 0.00 | 0.00 | 0.00 | 37 | 1006.3 |
| 20260506095008 | 91 | 311 | 10.0 | 14.0 | 0.00 | 0.00 | 0.00 | 38 | 1006.3 |
| 20260506094903 | 91 | 303 | 8.0 | 13.0 | 0.00 | 0.00 | 0.00 | 39 | 1006.3 |
| 20260506094803 | 91 | 331 | 7.0 | 14.0 | 0.00 | 0.00 | 0.00 | 39 | 1006.3 |
| 20260506094704 | 91 | 286 | 6.0 | 14.0 | 0.00 | 0.00 | 0.00 | 39 | 1006.3 |
| 20260506094604 | 91 | 275 | 6.0 | 14.0 | 0.00 | 0.00 | 0.00 | 39 | 1006.3 |
| 20260506094507 | 91 | 234 | 7.0 | 14.0 | 0.00 | 0.00 | 0.00 | 38 | 1006.3 |
| 20260506094103 | 91 | 284 | 10.0 | 14.0 | 0.00 | 0.00 | 0.00 | 39 | 1006.7 |
| 20260506093902 | 91 | 294 | 8.0 | 14.0 | 0.00 | 0.00 | 0.00 | 39 | 1006.6 |
| 20260506093803 | 91 | 314 | 6.0 | 14.0 | 0.00 | 0.00 | 0.00 | 38 | 1006.7 |
| 20260506093704 | 91 | 296 | 5.0 | 14.0 | 0.00 | 0.00 | 0.00 | 37 | 1006.6 |
| 20260506093604 | 91 | 286 | 7.0 | 14.0 | 0.00 | 0.00 | 0.00 | 38 | 1006.7 |
| 20260506093505 | 91 | 323 | 10.0 | 14.0 | 0.00 | 0.00 | 0.00 | 38 | 1006.8 |
| 20260506093404 | 92 | 302 | 9.0 | 14.0 | 0.00 | 0.00 | 0.00 | 38 | 1006.7 |
| 20260506093302 | 92 | 312 | 5.0 | 12.0 | 0.00 | 0.00 | 0.00 | 38 | 1006.8 |
| 20260506093205 | 92 | 298 | 4.0 | 12.0 | 0.00 | 0.00 | 0.00 | 38 | 1006.8 |
| 20260506093103 | 92 | 346 | 5.0 | 12.0 | 0.00 | 0.00 | 0.00 | 38 | 1006.8 |
| 20260506093007 | 91 | 340 | 6.0 | 12.0 | 0.00 | 0.00 | 0.00 | 38 | 1006.8 |
| 20260506092904 | 91 | 292 | 7.0 | 12.0 | 0.00 | 0.00 | 0.00 | 37 | 1006.8 |
| 20260506092805 | 91 | 292 | 8.0 | 12.0 | 0.00 | 0.00 | 0.00 | 38 | 1006.8 |